Observation data for Fort Chadbourne on 12/09/2018      Previous  Date       Current Mesonet Observations  Soil Data  Daily Summary Page  Observations in Plain Language
KCH1 090600Z 33004KT M01/M01 A3032 RMK A01 T10061008  RH  099%=      5-min Rain = 0
KCH1 090601Z 33004KT M01/M01 A3032 RMK A01 T10061008  RH  099%=      5-min Rain = 0
KCH1 090602Z 33004KT M01/M01 A3032 RMK A01 T10061008  RH  099%=      5-min Rain = 0
KCH1 090603Z 33005KT M01/M01 A3032 RMK A01 T10061008  RH  099%=      5-min Rain = 0
KCH1 090604Z 33005KT M01/M01 A3032 RMK A01 T10071008  RH  099%=      5-min Rain = 0
KCH1 090605Z 33004KT M01/M01 A3032 RMK A01 T10061007  RH  099%=      5-min Rain = 0
KCH1 090606Z 33004KT M01/M01 A3032 RMK A01 T10061007  RH  099%=      5-min Rain = 0
KCH1 090607Z 33004KT M01/M01 A3032 RMK A01 T10061007  RH  099%=      5-min Rain = 0
KCH1 090608Z 34004KT M01/M01 A3032 RMK A01 T10061007  RH  099%=      5-min Rain = 0
KCH1 090609Z 34003KT M01/M01 A3032 RMK A01 T10061007  RH  099%=      5-min Rain = 0
KCH1 090610Z 35003KT M01/M01 A3032 RMK A01 T10061007  RH  099%=      5-min Rain = 0
KCH1 090611Z 35003KT M01/M01 A3032 RMK A01 T10061008  RH  099%=      5-min Rain = 0
KCH1 090612Z 35003KT M01/M01 A3032 RMK A01 T10101014  RH  098%=      5-min Rain = 0
KCH1 090613Z 34004KT M01/M02 A3032 RMK A01 T10141018  RH  097%=      5-min Rain = 0
KCH1 090614Z 34004KT M02/M02 A3032 RMK A01 T10151018  RH  097%=      5-min Rain = 0
KCH1 090615Z 33004KT M01/M02 A3032 RMK A01 T10141017  RH  098%=      5-min Rain = 0
KCH1 090616Z 33005KT M01/M02 A3032 RMK A01 T10121015  RH  098%=      5-min Rain = 0
KCH1 090617Z 33005KT M01/M01 A3032 RMK A01 T10111013  RH  099%=      5-min Rain = 0
KCH1 090618Z 33005KT M01/M01 A3032 RMK A01 T10101011  RH  099%=      5-min Rain = 0
KCH1 090619Z 33005KT M01/M01 A3032 RMK A01 T10091010  RH  099%=      5-min Rain = 0
KCH1 090620Z 33005KT M01/M01 A3032 RMK A01 T10081009  RH  099%=      5-min Rain = 0
KCH1 090621Z 33005KT M01/M01 A3032 RMK A01 T10071009  RH  099%=      5-min Rain = 0
KCH1 090622Z 33005KT M01/M01 A3032 RMK A01 T10071008  RH  099%=      5-min Rain = 0
KCH1 090623Z 33005KT M01/M01 A3032 RMK A01 T10071008  RH  099%=      5-min Rain = 0
KCH1 090624Z 33005KT M01/M01 A3032 RMK A01 T10061008  RH  099%=      5-min Rain = 0
KCH1 090625Z 33005KT M01/M01 A3032 RMK A01 T10071009  RH  099%=      5-min Rain = 0
KCH1 090626Z 33005KT M01/M01 A3032 RMK A01 T10071009  RH  099%=      5-min Rain = 0
KCH1 090627Z 34004KT M01/M01 A3031 RMK A01 T10071009  RH  098%=      5-min Rain = 0
KCH1 090628Z 34004KT M01/M01 A3031 RMK A01 T10071010  RH  098%=      5-min Rain = 0
KCH1 090629Z 34004KT M01/M01 A3031 RMK A01 T10081010  RH  098%=      5-min Rain = 0
KCH1 090630Z 34004KT M01/M01 A3031 RMK A01 T10081010  RH  098%=      5-min Rain = 0
KCH1 090631Z 35004KT M01/M01 A3031 RMK A01 T10081011  RH  098%=      5-min Rain = 0
KCH1 090632Z 35004KT M01/M01 A3031 RMK A01 T10091011  RH  098%=      5-min Rain = 0
KCH1 090633Z 35005KT M01/M01 A3031 RMK A01 T10091012  RH  098%=      5-min Rain = 0
KCH1 090634Z 35004KT M01/M01 A3031 RMK A01 T10091012  RH  098%=      5-min Rain = 0
KCH1 090635Z 35005KT M01/M01 A3031 RMK A01 T10101012  RH  098%=      5-min Rain = 0
KCH1 090636Z 35004KT M01/M01 A3031 RMK A01 T10101012  RH  098%=      5-min Rain = 0
KCH1 090637Z 35004KT M01/M01 A3031 RMK A01 T10101013  RH  098%=      5-min Rain = 0
KCH1 090638Z 35004KT M01/M01 A3031 RMK A01 T10101013  RH  098%=      5-min Rain = 0
KCH1 090639Z 35004KT M01/M01 A3031 RMK A01 T10111013  RH  098%=      5-min Rain = 0
KCH1 090640Z 35004KT M01/M01 A3031 RMK A01 T10111014  RH  098%=      5-min Rain = 0
KCH1 090641Z 35004KT M01/M01 A3031 RMK A01 T10111014  RH  098%=      5-min Rain = 0
KCH1 090642Z 35004KT M01/M01 A3031 RMK A01 T10111013  RH  098%=      5-min Rain = 0
KCH1 090643Z 35003KT M01/M01 A3031 RMK A01 T10111014  RH  098%=      5-min Rain = 0
KCH1 090644Z 36004KT M01/M01 A3031 RMK A01 T10121014  RH  098%=      5-min Rain = 0
KCH1 090645Z 36003KT M01/M02 A3031 RMK A01 T10121015  RH  098%=      5-min Rain = 0
KCH1 090646Z 35004KT M01/M02 A3031 RMK A01 T10121015  RH  098%=      5-min Rain = 0
KCH1 090647Z 35003KT M01/M02 A3031 RMK A01 T10131016  RH  098%=      5-min Rain = 0
KCH1 090648Z 34003KT M01/M02 A3031 RMK A01 T10131016  RH  098%=      5-min Rain = 0
KCH1 090649Z 34003KT M01/M02 A3031 RMK A01 T10131016  RH  098%=      5-min Rain = 0
KCH1 090650Z 34004KT M01/M02 A3031 RMK A01 T10131016  RH  098%=      5-min Rain = 0
KCH1 090651Z 34004KT M01/M02 A3031 RMK A01 T10131016  RH  098%=      5-min Rain = 0
KCH1 090652Z 34004KT M01/M02 A3031 RMK A01 T10141017  RH  098%=      5-min Rain = 0
KCH1 090653Z 34004KT M01/M02 A3031 RMK A01 T10141016  RH  098%=      5-min Rain = 0
KCH1 090654Z 35004KT M01/M02 A3031 RMK A01 T10141016  RH  098%=      5-min Rain = 0
KCH1 090655Z 35004KT M01/M02 A3031 RMK A01 T10141016  RH  098%=      5-min Rain = 0
KCH1 090656Z 35004KT M01/M02 A3031 RMK A01 T10141017  RH  098%=      5-min Rain = 0
KCH1 090657Z 35004KT M01/M02 A3031 RMK A01 T10141017  RH  098%=      5-min Rain = 0
KCH1 090658Z 34004KT M01/M02 A3031 RMK A01 T10141017  RH  098%=      5-min Rain = 0
KCH1 090659Z 34003KT M01/M02 A3031 RMK A01 T10141017  RH  098%=      5-min Rain = 0
KCH1 090700Z 34004KT M01/M02 A3031 RMK A01 T10141017  RH  098%=      5-min Rain = 0
KCH1 090701Z 34003KT M01/M02 A3031 RMK A01 T10141017  RH  098%=      5-min Rain = 0
KCH1 090702Z 34003KT M02/M02 A3031 RMK A01 T10151017  RH  098%=      5-min Rain = 0
KCH1 090703Z 33003KT M02/M02 A3031 RMK A01 T10151017  RH  098%=      5-min Rain = 0
KCH1 090704Z 33003KT M02/M02 A3031 RMK A01 T10151017  RH  098%=      5-min Rain = 0
KCH1 090705Z 34003KT M02/M02 A3031 RMK A01 T10151017  RH  098%=      5-min Rain = 0
KCH1 090706Z 34003KT M02/M02 A3031 RMK A01 T10151017  RH  098%=      5-min Rain = 0
KCH1 090707Z 34003KT M02/M02 A3031 RMK A01 T10151017  RH  099%=      5-min Rain = 0
KCH1 090708Z 33003KT M02/M02 A3031 RMK A01 T10151018  RH  098%=      5-min Rain = 0
KCH1 090709Z 33003KT M02/M02 A3031 RMK A01 T10151018  RH  098%=      5-min Rain = 0
KCH1 090710Z 33003KT M02/M02 A3031 RMK A01 T10151018  RH  098%=      5-min Rain = 0
KCH1 090711Z 33004KT M02/M02 A3031 RMK A01 T10161018  RH  098%=      5-min Rain = 0
KCH1 090712Z 33004KT M02/M02 A3031 RMK A01 T10161018  RH  098%=      5-min Rain = 0
KCH1 090713Z 34004KT M02/M02 A3031 RMK A01 T10161018  RH  099%=      5-min Rain = 0
KCH1 090714Z 34005KT M02/M02 A3031 RMK A01 T10161018  RH  099%=      5-min Rain = 0
KCH1 090715Z 34005KT M02/M02 A3031 RMK A01 T10161018  RH  099%=      5-min Rain = 0
KCH1 090716Z 34004KT M02/M02 A3031 RMK A01 T10161018  RH  099%=      5-min Rain = 0
KCH1 090717Z 34004KT M02/M02 A3031 RMK A01 T10161018  RH  099%=      5-min Rain = 0
KCH1 090718Z 33004KT M02/M02 A3031 RMK A01 T10161018  RH  099%=      5-min Rain = 0
KCH1 090719Z 34004KT M02/M02 A3031 RMK A01 T10151017  RH  099%=      5-min Rain = 0
KCH1 090720Z 34004KT M02/M02 A3031 RMK A01 T10151017  RH  099%=      5-min Rain = 0
KCH1 090721Z 34004KT M02/M02 A3031 RMK A01 T10151017  RH  099%=      5-min Rain = 0
KCH1 090722Z 34004KT M02/M02 A3031 RMK A01 T10151017  RH  099%=      5-min Rain = 0
KCH1 090723Z 34003KT M02/M02 A3031 RMK A01 T10151018  RH  099%=      5-min Rain = 0
KCH1 090724Z 34003KT M02/M02 A3031 RMK A01 T10151017  RH  099%=      5-min Rain = 0
KCH1 090725Z 35003KT M02/M02 A3031 RMK A01 T10151017  RH  099%=      5-min Rain = 0
KCH1 090726Z 34003KT M02/M02 A3031 RMK A01 T10151017  RH  099%=      5-min Rain = 0
KCH1 090727Z 34003KT M02/M02 A3031 RMK A01 T10151017  RH  098%=      5-min Rain = 0
KCH1 090728Z 34003KT M02/M02 A3031 RMK A01 T10151018  RH  098%=      5-min Rain = 0
KCH1 090729Z 34003KT M02/M02 A3031 RMK A01 T10151017  RH  098%=      5-min Rain = 0
KCH1 090730Z 34003KT M02/M02 A3031 RMK A01 T10151017  RH  098%=      5-min Rain = 0
KCH1 090731Z 35003KT M02/M02 A3031 RMK A01 T10151018  RH  098%=      5-min Rain = 0
KCH1 090732Z 34003KT M02/M02 A3031 RMK A01 T10151018  RH  098%=      5-min Rain = 0
KCH1 090733Z 35003KT M02/M02 A3031 RMK A01 T10151017  RH  098%=      5-min Rain = 0
KCH1 090734Z 35003KT M02/M02 A3031 RMK A01 T10151018  RH  098%=      5-min Rain = 0
KCH1 090735Z 36003KT M02/M02 A3031 RMK A01 T10151017  RH  098%=      5-min Rain = 0
KCH1 090736Z 00002KT M02/M02 A3031 RMK A01 T10151018  RH  098%=      5-min Rain = 0
KCH1 090737Z 01003KT M02/M02 A3031 RMK A01 T10151018  RH  098%=      5-min Rain = 0
KCH1 090738Z 00003KT M02/M02 A3031 RMK A01 T10161018  RH  098%=      5-min Rain = 0
KCH1 090739Z 35003KT M02/M02 A3031 RMK A01 T10161019  RH  098%=      5-min Rain = 0
KCH1 090740Z 35003KT M02/M02 A3031 RMK A01 T10171019  RH  098%=      5-min Rain = 0
KCH1 090741Z 33004KT M02/M02 A3031 RMK A01 T10171019  RH  098%=      5-min Rain = 0
KCH1 090742Z 33004KT M02/M02 A3031 RMK A01 T10171019  RH  098%=      5-min Rain = 0
KCH1 090743Z 33004KT M02/M02 A3031 RMK A01 T10171019  RH  098%=      5-min Rain = 0
KCH1 090744Z 32004KT M02/M02 A3031 RMK A01 T10171019  RH  098%=      5-min Rain = 0
KCH1 090745Z 32004KT M02/M02 A3031 RMK A01 T10171019  RH  098%=      5-min Rain = 0
KCH1 090746Z 32004KT M02/M02 A3031 RMK A01 T10171019  RH  098%=      5-min Rain = 0
KCH1 090747Z 32004KT M02/M02 A3031 RMK A01 T10161018  RH  098%=      5-min Rain = 0
KCH1 090748Z 33004KT M02/M02 A3031 RMK A01 T10151018  RH  098%=      5-min Rain = 0
KCH1 090749Z 33004KT M02/M02 A3031 RMK A01 T10151017  RH  098%=      5-min Rain = 0
KCH1 090750Z 33004KT M02/M02 A3031 RMK A01 T10151017  RH  098%=      5-min Rain = 0
KCH1 090751Z 33004KT M02/M02 A3031 RMK A01 T10151017  RH  098%=      5-min Rain = 0
KCH1 090752Z 34004KT M02/M02 A3031 RMK A01 T10151018  RH  098%=      5-min Rain = 0
KCH1 090753Z 34004KT M02/M02 A3031 RMK A01 T10151018  RH  098%=      5-min Rain = 0
KCH1 090754Z 34004KT M02/M02 A303 RMK A01 T10151018  RH  098%=      5-min Rain = 0
KCH1 090755Z 34004KT M02/M02 A303 RMK A01 T10151018  RH  098%=      5-min Rain = 0
KCH1 090756Z 34004KT M02/M02 A303 RMK A01 T10161018  RH  098%=      5-min Rain = 0
KCH1 090757Z 34005KT M02/M02 A303 RMK A01 T10161018  RH  098%=      5-min Rain = 0
KCH1 090758Z 34005KT M02/M02 A303 RMK A01 T10161019  RH  098%=      5-min Rain = 0
KCH1 090759Z 34005KT M02/M02 A303 RMK A01 T10161018  RH  098%=      5-min Rain = 0
KCH1 090800Z 34005KT M02/M02 A303 RMK A01 T10161018  RH  098%=      5-min Rain = 0
KCH1 090801Z 34005KT M02/M02 A303 RMK A01 T10151018  RH  098%=      5-min Rain = 0
KCH1 090802Z 34005KT M02/M02 A303 RMK A01 T10151017  RH  098%=      5-min Rain = 0
KCH1 090803Z 34004KT M02/M02 A303 RMK A01 T10151017  RH  098%=      5-min Rain = 0
KCH1 090804Z 34005KT M01/M02 A303 RMK A01 T10141017  RH  098%=      5-min Rain = 0
KCH1 090805Z 34004KT M01/M02 A303 RMK A01 T10141017  RH  098%=      5-min Rain = 0
KCH1 090806Z 34004KT M01/M02 A303 RMK A01 T10141017  RH  098%=      5-min Rain = 0
KCH1 090807Z 34003KT M01/M02 A303 RMK A01 T10141017  RH  098%=      5-min Rain = 0
KCH1 090808Z 34003KT M01/M02 A303 RMK A01 T10141017  RH  098%=      5-min Rain = 0
KCH1 090809Z 34003KT M01/M02 A303 RMK A01 T10141018  RH  098%=      5-min Rain = 0
KCH1 090810Z 34003KT M01/M02 A303 RMK A01 T10141018  RH  098%=      5-min Rain = 0
KCH1 090811Z 33003KT M02/M02 A303 RMK A01 T10151018  RH  098%=      5-min Rain = 0
KCH1 090812Z 33003KT M02/M02 A303 RMK A01 T10151019  RH  098%=      5-min Rain = 0
KCH1 090813Z 33003KT M02/M02 A303 RMK A01 T10151019  RH  098%=      5-min Rain = 0
KCH1 090814Z 33003KT M02/M02 A303 RMK A01 T10151019  RH  098%=      5-min Rain = 0
KCH1 090815Z 33003KT M02/M02 A303 RMK A01 T10151019  RH  098%=      5-min Rain = 0
KCH1 090816Z 32003KT M02/M02 A303 RMK A01 T10161020  RH  098%=      5-min Rain = 0
KCH1 090817Z 32003KT M02/M02 A303 RMK A01 T10161020  RH  098%=      5-min Rain = 0
KCH1 090818Z 32003KT M02/M02 A303 RMK A01 T10161019  RH  098%=      5-min Rain = 0
KCH1 090819Z 31003KT M02/M02 A303 RMK A01 T10161019  RH  098%=      5-min Rain = 0
KCH1 090820Z 31003KT M02/M02 A303 RMK A01 T10161020  RH  098%=      5-min Rain = 0
KCH1 090821Z 31004KT M02/M02 A303 RMK A01 T10161020  RH  098%=      5-min Rain = 0
KCH1 090822Z 31004KT M02/M02 A303 RMK A01 T10171020  RH  098%=      5-min Rain = 0
KCH1 090823Z 31004KT M02/M02 A303 RMK A01 T10171020  RH  098%=      5-min Rain = 0
KCH1 090824Z 32004KT M02/M02 A303 RMK A01 T10161019  RH  098%=      5-min Rain = 0
KCH1 090825Z 32004KT M02/M02 A303 RMK A01 T10161019  RH  098%=      5-min Rain = 0
KCH1 090826Z 32004KT M02/M02 A303 RMK A01 T10161019  RH  098%=      5-min Rain = 0
KCH1 090827Z 32004KT M02/M02 A303 RMK A01 T10161019  RH  098%=      5-min Rain = 0
KCH1 090828Z 32005KT M02/M02 A303 RMK A01 T10161019  RH  098%=      5-min Rain = 0
KCH1 090829Z 32004KT M02/M02 A303 RMK A01 T10161018  RH  098%=      5-min Rain = 0
KCH1 090830Z 32004KT M02/M02 A303 RMK A01 T10161019  RH  098%=      5-min Rain = 0
KCH1 090831Z 32004KT M02/M02 A303 RMK A01 T10161018  RH  098%=      5-min Rain = 0
KCH1 090832Z 32004KT M02/M02 A303 RMK A01 T10161018  RH  098%=      5-min Rain = 0
KCH1 090833Z 32004KT M02/M02 A303 RMK A01 T10161019  RH  098%=      5-min Rain = 0
KCH1 090834Z 33004KT M02/M02 A303 RMK A01 T10161019  RH  098%=      5-min Rain = 0
KCH1 090835Z 33004KT M02/M02 A303 RMK A01 T10161018  RH  098%=      5-min Rain = 0
KCH1 090836Z 33004KT M02/M02 A303 RMK A01 T10161019  RH  098%=      5-min Rain = 0
KCH1 090837Z 33004KT M02/M02 A303 RMK A01 T10161019  RH  098%=      5-min Rain = 0
KCH1 090838Z 33003KT M02/M02 A303 RMK A01 T10161019  RH  098%=      5-min Rain = 0
KCH1 090839Z 33003KT M02/M02 A303 RMK A01 T10161019  RH  098%=      5-min Rain = 0
KCH1 090840Z 33003KT M02/M02 A303 RMK A01 T10161020  RH  098%=      5-min Rain = 0
KCH1 090841Z 33003KT M02/M02 A303 RMK A01 T10161020  RH  098%=      5-min Rain = 0
KCH1 090842Z 33003KT M02/M02 A303 RMK A01 T10171020  RH  098%=      5-min Rain = 0
KCH1 090843Z 33003KT M02/M02 A303 RMK A01 T10171020  RH  098%=      5-min Rain = 0
KCH1 090844Z 33003KT M02/M02 A3029 RMK A01 T10171020  RH  098%=      5-min Rain = 0
KCH1 090845Z 33002KT M02/M02 A3029 RMK A01 T10171020  RH  098%=      5-min Rain = 0
KCH1 090846Z 32003KT M02/M02 A3029 RMK A01 T10171020  RH  098%=      5-min Rain = 0
KCH1 090847Z 32002KT M02/M02 A3029 RMK A01 T10171020  RH  098%=      5-min Rain = 0
KCH1 090848Z 32002KT M02/M02 A3029 RMK A01 T10171020  RH  098%=      5-min Rain = 0
KCH1 090849Z 32001KT M02/M02 A3029 RMK A01 T10171020  RH  098%=      5-min Rain = 0
KCH1 090850Z 31000KT M02/M02 A3029 RMK A01 T10171021  RH  097%=      5-min Rain = 0
KCH1 090851Z 00000KT M02/M02 A3029 RMK A01 T10191023  RH  097%=      5-min Rain = 0
KCH1 090852Z 00000KT M02/M02 A3029 RMK A01 T10201024  RH  097%=      5-min Rain = 0
KCH1 090853Z 13000KT M02/M03 A3029 RMK A01 T10211025  RH  097%=      5-min Rain = 0
KCH1 090854Z 13001KT M02/M02 A3029 RMK A01 T10211024  RH  097%=      5-min Rain = 0
KCH1 090855Z 13000KT M02/M02 A3029 RMK A01 T10211024  RH  098%=      5-min Rain = 0
KCH1 090856Z 00000KT M02/M02 A3029 RMK A01 T10201023  RH  098%=      5-min Rain = 0
KCH1 090857Z 00000KT M02/M02 A3029 RMK A01 T10201023  RH  098%=      5-min Rain = 0
KCH1 090858Z 00000KT M02/M02 A3029 RMK A01 T10191022  RH  098%=      5-min Rain = 0
KCH1 090859Z 02000KT M02/M02 A3029 RMK A01 T10191022  RH  098%=      5-min Rain = 0
KCH1 090900Z 00000KT M02/M02 A3029 RMK A01 T10191022  RH  098%=      5-min Rain = 0
KCH1 090901Z 00001KT M02/M02 A3029 RMK A01 T10191021  RH  098%=      5-min Rain = 0
KCH1 090902Z 36001KT M02/M02 A3029 RMK A01 T10191021  RH  098%=      5-min Rain = 0
KCH1 090903Z 32000KT M02/M02 A3029 RMK A01 T10191021  RH  098%=      5-min Rain = 0
KCH1 090904Z 32000KT M02/M02 A3029 RMK A01 T10191022  RH  098%=      5-min Rain = 0
KCH1 090905Z 33001KT M02/M02 A303 RMK A01 T10191022  RH  098%=      5-min Rain = 0
KCH1 090906Z 32001KT M02/M02 A3029 RMK A01 T10201022  RH  098%=      5-min Rain = 0
KCH1 090907Z 32001KT M02/M02 A3029 RMK A01 T10191022  RH  098%=      5-min Rain = 0
KCH1 090908Z 32002KT M02/M02 A3029 RMK A01 T10191022  RH  098%=      5-min Rain = 0
KCH1 090909Z 31002KT M02/M02 A3029 RMK A01 T10191022  RH  098%=      5-min Rain = 0
KCH1 090910Z 31002KT M02/M02 A3029 RMK A01 T10201022  RH  098%=      5-min Rain = 0
KCH1 090911Z 32003KT M02/M02 A3029 RMK A01 T10191022  RH  098%=      5-min Rain = 0
KCH1 090912Z 32003KT M02/M02 A3029 RMK A01 T10191022  RH  098%=      5-min Rain = 0
KCH1 090913Z 33003KT M02/M02 A3029 RMK A01 T10191021  RH  098%=      5-min Rain = 0
KCH1 090914Z 33003KT M02/M02 A3029 RMK A01 T10191021  RH  098%=      5-min Rain = 0
KCH1 090915Z 34003KT M02/M02 A3029 RMK A01 T10191021  RH  098%=      5-min Rain = 0
KCH1 090916Z 35003KT M02/M02 A3029 RMK A01 T10191021  RH  098%=      5-min Rain = 0
KCH1 090917Z 34003KT M02/M02 A3029 RMK A01 T10191021  RH  098%=      5-min Rain = 0
KCH1 090918Z 35002KT M02/M02 A3029 RMK A01 T10191021  RH  098%=      5-min Rain = 0
KCH1 090919Z 34003KT M02/M02 A3029 RMK A01 T10191022  RH  098%=      5-min Rain = 0
KCH1 090920Z 34003KT M02/M02 A3029 RMK A01 T10191022  RH  098%=      5-min Rain = 0
KCH1 090921Z 33003KT M02/M02 A303 RMK A01 T10191022  RH  098%=      5-min Rain = 0
KCH1 090922Z 33004KT M02/M02 A303 RMK A01 T10201022  RH  098%=      5-min Rain = 0
KCH1 090923Z 32004KT M02/M02 A303 RMK A01 T10191022  RH  098%=      5-min Rain = 0
KCH1 090924Z 32004KT M02/M02 A303 RMK A01 T10191022  RH  098%=      5-min Rain = 0
KCH1 090925Z 32004KT M02/M02 A303 RMK A01 T10191021  RH  098%=      5-min Rain = 0
KCH1 090926Z 32004KT M02/M02 A303 RMK A01 T10181021  RH  098%=      5-min Rain = 0
KCH1 090927Z 33004KT M02/M02 A303 RMK A01 T10181020  RH  098%=      5-min Rain = 0
KCH1 090928Z 32004KT M02/M02 A303 RMK A01 T10171020  RH  098%=      5-min Rain = 0
KCH1 090929Z 32005KT M02/M02 A303 RMK A01 T10171020  RH  098%=      5-min Rain = 0
KCH1 090930Z 32005KT M02/M02 A303 RMK A01 T10171020  RH  098%=      5-min Rain = 0
KCH1 090931Z 32005KT M02/M02 A303 RMK A01 T10171020  RH  098%=      5-min Rain = 0
KCH1 090932Z 32005KT M02/M02 A303 RMK A01 T10171020  RH  098%=      5-min Rain = 0
KCH1 090933Z 31005KT M02/M02 A303 RMK A01 T10171020  RH  098%=      5-min Rain = 0
KCH1 090934Z 32006KT M02/M02 A303 RMK A01 T10161019  RH  098%=      5-min Rain = 0
KCH1 090935Z 31005KT M02/M02 A303 RMK A01 T10161019  RH  098%=      5-min Rain = 0
KCH1 090936Z 31006KT M02/M02 A303 RMK A01 T10151019  RH  097%=      5-min Rain = 0
KCH1 090937Z 31006KT M02/M02 A303 RMK A01 T10151019  RH  097%=      5-min Rain = 0
KCH1 090938Z 32006KT M02/M02 A303 RMK A01 T10151019  RH  097%=      5-min Rain = 0
KCH1 090939Z 32006KT M01/M02 A303 RMK A01 T10141019  RH  097%=      5-min Rain = 0
KCH1 090940Z 32006KT M01/M02 A303 RMK A01 T10141019  RH  097%=      5-min Rain = 0
KCH1 090941Z 32006KT M01/M02 A303 RMK A01 T10141019  RH  096%=      5-min Rain = 0
KCH1 090942Z 32006KT M01/M02 A3031 RMK A01 T10141020  RH  096%=      5-min Rain = 0
KCH1 090943Z 32006KT M01/M02 A3031 RMK A01 T10141019  RH  096%=      5-min Rain = 0
KCH1 090944Z 32007KT M01/M02 A3031 RMK A01 T10131020  RH  096%=      5-min Rain = 0
KCH1 090945Z 32006KT M01/M02 A3031 RMK A01 T10131020  RH  095%=      5-min Rain = 0
KCH1 090946Z 32007KT M01/M02 A3031 RMK A01 T10131020  RH  095%=      5-min Rain = 0
KCH1 090947Z 32006KT M01/M02 A3031 RMK A01 T10131021  RH  095%=      5-min Rain = 0
KCH1 090948Z 32006KT M01/M02 A3031 RMK A01 T10131021  RH  095%=      5-min Rain = 0
KCH1 090949Z 32006KT M01/M02 A3031 RMK A01 T10141022  RH  094%=      5-min Rain = 0
KCH1 090950Z 32006KT M01/M02 A303 RMK A01 T10141021  RH  094%=      5-min Rain = 0
KCH1 090951Z 32006KT M01/M02 A303 RMK A01 T10131021  RH  094%=      5-min Rain = 0
KCH1 090952Z 32006KT M01/M02 A303 RMK A01 T10131022  RH  094%=      5-min Rain = 0
KCH1 090953Z 32006KT M01/M02 A303 RMK A01 T10131022  RH  094%=      5-min Rain = 0
KCH1 090954Z 32005KT M01/M02 A303 RMK A01 T10131022  RH  094%=      5-min Rain = 0
KCH1 090955Z 32005KT M01/M02 A303 RMK A01 T10131022  RH  094%=      5-min Rain = 0
KCH1 090956Z 31006KT M01/M02 A303 RMK A01 T10131022  RH  094%=      5-min Rain = 0
KCH1 090957Z 32006KT M01/M02 A303 RMK A01 T10131021  RH  094%=      5-min Rain = 0
KCH1 090958Z 31006KT M01/M02 A3031 RMK A01 T10131021  RH  094%=      5-min Rain = 0
KCH1 090959Z 32006KT M01/M02 A303 RMK A01 T10121021  RH  094%=      5-min Rain = 0
KCH1 091000Z 31006KT M01/M02 A303 RMK A01 T10121020  RH  094%=      5-min Rain = 0
KCH1 091001Z 31006KT M01/M02 A303 RMK A01 T10121020  RH  094%=      5-min Rain = 0
KCH1 091002Z 32006KT M01/M02 A303 RMK A01 T10121020  RH  094%=      5-min Rain = 0
KCH1 091003Z 31007KT M01/M02 A3031 RMK A01 T10121020  RH  094%=      5-min Rain = 0
KCH1 091004Z 32006KT M01/M02 A3031 RMK A01 T10111020  RH  094%=      5-min Rain = 0
KCH1 091005Z 32006KT M01/M02 A3031 RMK A01 T10121020  RH  094%=      5-min Rain = 0
KCH1 091006Z 31006KT M01/M02 A3031 RMK A01 T10121020  RH  094%=      5-min Rain = 0
KCH1 091007Z 32007KT M01/M02 A3031 RMK A01 T10121020  RH  094%=      5-min Rain = 0
KCH1 091008Z 32006KT M01/M02 A3031 RMK A01 T10121021  RH  094%=      5-min Rain = 0
KCH1 091009Z 32006KT M01/M02 A3031 RMK A01 T10121021  RH  094%=      5-min Rain = 0
KCH1 091010Z 32006KT M01/M02 A303 RMK A01 T10131021  RH  094%=      5-min Rain = 0
KCH1 091011Z 32006KT M01/M02 A303 RMK A01 T10131021  RH  094%=      5-min Rain = 0
KCH1 091012Z 32005KT M01/M02 A3031 RMK A01 T10131022  RH  094%=      5-min Rain = 0
KCH1 091013Z 32006KT M01/M02 A3031 RMK A01 T10141023  RH  094%=      5-min Rain = 0
KCH1 091014Z 32005KT M01/M02 A3031 RMK A01 T10141023  RH  094%=      5-min Rain = 0
KCH1 091015Z 32006KT M02/M02 A3031 RMK A01 T10151023  RH  094%=      5-min Rain = 0
KCH1 091016Z 32005KT M02/M02 A3031 RMK A01 T10151023  RH  094%=      5-min Rain = 0
KCH1 091017Z 32006KT M02/M02 A303 RMK A01 T10151024  RH  094%=      5-min Rain = 0
KCH1 091018Z 32006KT M02/M02 A303 RMK A01 T10161024  RH  094%=      5-min Rain = 0
KCH1 091019Z 32006KT M02/M02 A303 RMK A01 T10161024  RH  094%=      5-min Rain = 0
KCH1 091020Z 32006KT M02/M02 A303 RMK A01 T10161024  RH  094%=      5-min Rain = 0
KCH1 091021Z 32006KT M02/M02 A303 RMK A01 T10161024  RH  094%=      5-min Rain = 0
KCH1 091022Z 32006KT M02/M02 A303 RMK A01 T10161024  RH  094%=      5-min Rain = 0
KCH1 091023Z 32007KT M02/M03 A3031 RMK A01 T10171025  RH  094%=      5-min Rain = 0
KCH1 091024Z 32007KT M02/M02 A3031 RMK A01 T10161024  RH  094%=      5-min Rain = 0
KCH1 091025Z 32007KT M02/M03 A3031 RMK A01 T10171025  RH  094%=      5-min Rain = 0
KCH1 091026Z 32006KT M02/M03 A3031 RMK A01 T10171025  RH  094%=      5-min Rain = 0
KCH1 091027Z 32007KT M02/M03 A3031 RMK A01 T10171025  RH  094%=      5-min Rain = 0
KCH1 091028Z 32007KT M02/M03 A3031 RMK A01 T10171025  RH  094%=      5-min Rain = 0
KCH1 091029Z 32007KT M02/M03 A3031 RMK A01 T10171025  RH  094%=      5-min Rain = 0
KCH1 091030Z 32008KT M02/M03 A3031 RMK A01 T10171025  RH  095%=      5-min Rain = 0
KCH1 091031Z 32007KT M02/M03 A3031 RMK A01 T10171025  RH  094%=      5-min Rain = 0
KCH1 091032Z 32006KT M02/M03 A3031 RMK A01 T10171025  RH  094%=      5-min Rain = 0
KCH1 091033Z 32007KT M02/M03 A3031 RMK A01 T10161025  RH  094%=      5-min Rain = 0
KCH1 091034Z 32008KT M02/M03 A3031 RMK A01 T10171025  RH  094%=      5-min Rain = 0
KCH1 091035Z 33008KT M02/M03 A3031 RMK A01 T10161025  RH  094%=      5-min Rain = 0
KCH1 091036Z 33008KT M02/M02 A3031 RMK A01 T10161024  RH  094%=      5-min Rain = 0
KCH1 091037Z 32008KT M02/M02 A3031 RMK A01 T10151024  RH  094%=      5-min Rain = 0
KCH1 091038Z 32008KT M02/M03 A3031 RMK A01 T10151025  RH  094%=      5-min Rain = 0
KCH1 091039Z 32008KT M02/M03 A3031 RMK A01 T10161025  RH  094%=      5-min Rain = 0
KCH1 091040Z 32008KT M02/M03 A3031 RMK A01 T10161025  RH  094%=      5-min Rain = 0
KCH1 091041Z 32008KT M02/M03 A3031 RMK A01 T10161025  RH  094%=      5-min Rain = 0
KCH1 091042Z 32007KT M02/M02 A3031 RMK A01 T10161024  RH  094%=      5-min Rain = 0
KCH1 091043Z 32007KT M02/M03 A3031 RMK A01 T10161025  RH  094%=      5-min Rain = 0
KCH1 091044Z 32008KT M02/M02 A3031 RMK A01 T10161024  RH  094%=      5-min Rain = 0
KCH1 091045Z 32008KT M02/M02 A3031 RMK A01 T10161024  RH  094%=      5-min Rain = 0
KCH1 091046Z 32007KT M02/M02 A3031 RMK A01 T10161024  RH  094%=      5-min Rain = 0
KCH1 091047Z 32007KT M02/M02 A3031 RMK A01 T10161024  RH  094%=      5-min Rain = 0
KCH1 091048Z 32008KT M02/M02 A3031 RMK A01 T10161024  RH  094%=      5-min Rain = 0
KCH1 091049Z 32008KT M02/M02 A3031 RMK A01 T10151024  RH  094%=      5-min Rain = 0
KCH1 091050Z 32008KT M02/M02 A3031 RMK A01 T10151024  RH  094%=      5-min Rain = 0
KCH1 091051Z 32008KT M02/M02 A3031 RMK A01 T10151023  RH  094%=      5-min Rain = 0
KCH1 091052Z 32008KT M02/M02 A3031 RMK A01 T10151024  RH  094%=      5-min Rain = 0
KCH1 091053Z 32008KT M02/M02 A3031 RMK A01 T10151024  RH  094%=      5-min Rain = 0
KCH1 091054Z 32008KT M02/M02 A3031 RMK A01 T10151023  RH  094%=      5-min Rain = 0
KCH1 091055Z 32009KT M02/M02 A3031 RMK A01 T10151023  RH  094%=      5-min Rain = 0
KCH1 091056Z 33008KT M02/M02 A3031 RMK A01 T10151023  RH  094%=      5-min Rain = 0
KCH1 091057Z 33008KT M02/M02 A3031 RMK A01 T10151023  RH  094%=      5-min Rain = 0
KCH1 091058Z 32008KT M02/M02 A3031 RMK A01 T10151023  RH  094%=      5-min Rain = 0
KCH1 091059Z 32008KT M02/M02 A3031 RMK A01 T10151023  RH  094%=      5-min Rain = 0
KCH1 091100Z 32008KT M02/M02 A3031 RMK A01 T10151023  RH  094%=      5-min Rain = 0
KCH1 091101Z 32008KT M02/M02 A3031 RMK A01 T10151023  RH  094%=      5-min Rain = 0
KCH1 091102Z 32008KT M02/M02 A3031 RMK A01 T10151023  RH  094%=      5-min Rain = 0
KCH1 091103Z 32008KT M01/M02 A3031 RMK A01 T10141023  RH  094%=      5-min Rain = 0
KCH1 091104Z 32008KT M01/M02 A3031 RMK A01 T10141023  RH  094%=      5-min Rain = 0
KCH1 091105Z 32008KT M01/M02 A3031 RMK A01 T10141023  RH  094%=      5-min Rain = 0
KCH1 091106Z 32008KT M01/M02 A3031 RMK A01 T10141023  RH  094%=      5-min Rain = 0
KCH1 091107Z 32008KT M02/M02 A3031 RMK A01 T10151023  RH  094%=      5-min Rain = 0
KCH1 091108Z 33008KT M02/M02 A3031 RMK A01 T10151023  RH  094%=      5-min Rain = 0
KCH1 091109Z 33008KT M02/M02 A3031 RMK A01 T10151023  RH  094%=      5-min Rain = 0
KCH1 091110Z 33008KT M02/M02 A3031 RMK A01 T10151023  RH  094%=      5-min Rain = 0
KCH1 091111Z 33007KT M02/M02 A3031 RMK A01 T10151023  RH  094%=      5-min Rain = 0
KCH1 091112Z 33007KT M02/M02 A3031 RMK A01 T10151023  RH  094%=      5-min Rain = 0
KCH1 091113Z 33007KT M02/M02 A3031 RMK A01 T10151023  RH  094%=      5-min Rain = 0
KCH1 091114Z 33007KT M02/M02 A3031 RMK A01 T10151023  RH  094%=      5-min Rain = 0
KCH1 091115Z 33007KT M02/M02 A3031 RMK A01 T10151023  RH  094%=      5-min Rain = 0
KCH1 091116Z 33006KT M02/M02 A3031 RMK A01 T10151023  RH  094%=      5-min Rain = 0
KCH1 091117Z 33007KT M02/M02 A3031 RMK A01 T10151022  RH  095%=      5-min Rain = 0
KCH1 091118Z 33006KT M02/M02 A3031 RMK A01 T10151022  RH  095%=      5-min Rain = 0
KCH1 091119Z 33006KT M02/M02 A3031 RMK A01 T10151022  RH  095%=      5-min Rain = 0
KCH1 091120Z 33006KT M02/M02 A3031 RMK A01 T10151022  RH  095%=      5-min Rain = 0
KCH1 091121Z 32007KT M02/M02 A3032 RMK A01 T10151022  RH  095%=      5-min Rain = 0
KCH1 091122Z 32007KT M02/M02 A3032 RMK A01 T10151022  RH  095%=      5-min Rain = 0
KCH1 091123Z 32006KT M02/M02 A3032 RMK A01 T10151022  RH  095%=      5-min Rain = 0
KCH1 091124Z 32006KT M02/M02 A3032 RMK A01 T10161023  RH  095%=      5-min Rain = 0
KCH1 091125Z 32006KT M02/M02 A3032 RMK A01 T10161023  RH  095%=      5-min Rain = 0
KCH1 091126Z 33006KT M02/M02 A3032 RMK A01 T10151022  RH  095%=      5-min Rain = 0
KCH1 091127Z 33006KT M02/M02 A3032 RMK A01 T10161022  RH  095%=      5-min Rain = 0
KCH1 091128Z 32006KT M02/M02 A3032 RMK A01 T10161022  RH  095%=      5-min Rain = 0
KCH1 091129Z 33006KT M02/M02 A3032 RMK A01 T10161023  RH  095%=      5-min Rain = 0
KCH1 091130Z 33006KT M02/M02 A3032 RMK A01 T10161023  RH  095%=      5-min Rain = 0
KCH1 091131Z 32006KT M02/M02 A3032 RMK A01 T10161023  RH  095%=      5-min Rain = 0
KCH1 091132Z 33005KT M02/M02 A3032 RMK A01 T10161023  RH  095%=      5-min Rain = 0
KCH1 091133Z 33006KT M02/M02 A3032 RMK A01 T10161023  RH  095%=      5-min Rain = 0
KCH1 091134Z 33005KT M02/M02 A3032 RMK A01 T10171024  RH  095%=      5-min Rain = 0
KCH1 091135Z 33006KT M02/M02 A3032 RMK A01 T10171024  RH  095%=      5-min Rain = 0
KCH1 091136Z 33005KT M02/M02 A3032 RMK A01 T10171024  RH  095%=      5-min Rain = 0
KCH1 091137Z 33005KT M02/M02 A3032 RMK A01 T10171024  RH  095%=      5-min Rain = 0
KCH1 091138Z 33006KT M02/M02 A3032 RMK A01 T10181024  RH  095%=      5-min Rain = 0
KCH1 091139Z 33005KT M02/M02 A3032 RMK A01 T10181024  RH  095%=      5-min Rain = 0
KCH1 091140Z 33006KT M02/M02 A3032 RMK A01 T10171024  RH  096%=      5-min Rain = 0
KCH1 091141Z 33005KT M02/M02 A3032 RMK A01 T10181024  RH  095%=      5-min Rain = 0
KCH1 091142Z 33006KT M02/M02 A3032 RMK A01 T10181024  RH  095%=      5-min Rain = 0
KCH1 091143Z 33005KT M02/M02 A3032 RMK A01 T10181024  RH  095%=      5-min Rain = 0
KCH1 091144Z 33006KT M02/M02 A3032 RMK A01 T10181024  RH  096%=      5-min Rain = 0
KCH1 091145Z 33006KT M02/M02 A3033 RMK A01 T10181024  RH  096%=      5-min Rain = 0
KCH1 091146Z 33006KT M02/M02 A3033 RMK A01 T10181024  RH  096%=      5-min Rain = 0
KCH1 091147Z 33006KT M02/M02 A3033 RMK A01 T10181024  RH  096%=      5-min Rain = 0
KCH1 091148Z 33006KT M02/M03 A3033 RMK A01 T10181025  RH  096%=      5-min Rain = 0
KCH1 091149Z 34006KT M02/M03 A3033 RMK A01 T10191025  RH  096%=      5-min Rain = 0
KCH1 091150Z 33005KT M02/M03 A3033 RMK A01 T10191025  RH  096%=      5-min Rain = 0
KCH1 091151Z 33006KT M02/M02 A3033 RMK A01 T10181024  RH  096%=      5-min Rain = 0
KCH1 091152Z 33005KT M02/M02 A3033 RMK A01 T10181024  RH  096%=      5-min Rain = 0
KCH1 091153Z 33006KT M02/M02 A3033 RMK A01 T10191024  RH  096%=      5-min Rain = 0
KCH1 091154Z 33005KT M02/M02 A3033 RMK A01 T10191024  RH  096%=      5-min Rain = 0
KCH1 091155Z 33005KT M02/M02 A3033 RMK A01 T10191024  RH  096%=      5-min Rain = 0
KCH1 091156Z 33005KT M02/M02 A3033 RMK A01 T10191024  RH  096%=      5-min Rain = 0
KCH1 091157Z 33005KT M02/M02 A3033 RMK A01 T10181024  RH  096%=      5-min Rain = 0
KCH1 091158Z 33005KT M02/M03 A3033 RMK A01 T10191025  RH  096%=      5-min Rain = 0
KCH1 091159Z 33005KT M02/M02 A3033 RMK A01 T10181024  RH  096%=      5-min Rain = 0
KCH1 091200Z 33005KT M02/M03 A3033 RMK A01 T10191025  RH  096%=      5-min Rain = 0
KCH1 091201Z 33006KT M02/M02 A3033 RMK A01 T10181024  RH  096%=      5-min Rain = 0
KCH1 091202Z 33006KT M02/M03 A3033 RMK A01 T10191025  RH  096%=      5-min Rain = 0
KCH1 091203Z 33006KT M02/M03 A3033 RMK A01 T10191025  RH  096%=      5-min Rain = 0
KCH1 091204Z 33005KT M02/M03 A3033 RMK A01 T10191025  RH  096%=      5-min Rain = 0
KCH1 091205Z 33005KT M02/M03 A3033 RMK A01 T10191025  RH  096%=      5-min Rain = 0
KCH1 091206Z 34005KT M02/M03 A3033 RMK A01 T10181025  RH  096%=      5-min Rain = 0
KCH1 091207Z 34005KT M02/M03 A3033 RMK A01 T10181025  RH  095%=      5-min Rain = 0
KCH1 091208Z 34005KT M02/M03 A3033 RMK A01 T10181025  RH  095%=      5-min Rain = 0
KCH1 091209Z 34004KT M02/M03 A3033 RMK A01 T10191025  RH  095%=      5-min Rain = 0
KCH1 091210Z 35004KT M02/M03 A3033 RMK A01 T10191025  RH  095%=      5-min Rain = 0
KCH1 091211Z 35004KT M02/M03 A3033 RMK A01 T10181025  RH  095%=      5-min Rain = 0
KCH1 091212Z 35003KT M02/M03 A3033 RMK A01 T10191025  RH  095%=      5-min Rain = 0
KCH1 091213Z 35004KT M02/M03 A3033 RMK A01 T10191026  RH  095%=      5-min Rain = 0
KCH1 091214Z 35004KT M02/M03 A3033 RMK A01 T10181026  RH  095%=      5-min Rain = 0
KCH1 091215Z 34005KT M02/M03 A3033 RMK A01 T10191026  RH  095%=      5-min Rain = 0
KCH1 091216Z 34005KT M02/M03 A3033 RMK A01 T10191026  RH  095%=      5-min Rain = 0
KCH1 091217Z 34005KT M02/M03 A3033 RMK A01 T10191026  RH  095%=      5-min Rain = 0
KCH1 091218Z 34005KT M02/M03 A3033 RMK A01 T10191026  RH  095%=      5-min Rain = 0
KCH1 091219Z 34006KT M02/M03 A3033 RMK A01 T10191026  RH  095%=      5-min Rain = 0
KCH1 091220Z 34006KT M02/M03 A3033 RMK A01 T10191026  RH  094%=      5-min Rain = 0
KCH1 091221Z 34007KT M02/M03 A3033 RMK A01 T10181026  RH  094%=      5-min Rain = 0
KCH1 091222Z 33007KT M02/M03 A3033 RMK A01 T10171026  RH  094%=      5-min Rain = 0
KCH1 091223Z 33006KT M02/M03 A3033 RMK A01 T10171026  RH  093%=      5-min Rain = 0
KCH1 091224Z 34006KT M02/M03 A3033 RMK A01 T10171026  RH  093%=      5-min Rain = 0
KCH1 091225Z 34006KT M02/M03 A3033 RMK A01 T10171027  RH  093%=      5-min Rain = 0
KCH1 091226Z 34004KT M02/M03 A3034 RMK A01 T10171028  RH  093%=      5-min Rain = 0
KCH1 091227Z 34005KT M02/M03 A3034 RMK A01 T10171028  RH  093%=      5-min Rain = 0
KCH1 091228Z 34004KT M02/M03 A3034 RMK A01 T10171028  RH  093%=      5-min Rain = 0
KCH1 091229Z 33005KT M02/M03 A3034 RMK A01 T10181028  RH  092%=      5-min Rain = 0
KCH1 091230Z 33005KT M02/M03 A3034 RMK A01 T10181029  RH  093%=      5-min Rain = 0
KCH1 091231Z 32004KT M02/M03 A3034 RMK A01 T10181029  RH  093%=      5-min Rain = 0
KCH1 091232Z 33004KT M02/M03 A3034 RMK A01 T10191029  RH  093%=      5-min Rain = 0
KCH1 091233Z 32005KT M02/M03 A3034 RMK A01 T10191029  RH  093%=      5-min Rain = 0
KCH1 091234Z 32005KT M02/M03 A3034 RMK A01 T10191029  RH  093%=      5-min Rain = 0
KCH1 091235Z 32006KT M02/M03 A3034 RMK A01 T10191029  RH  093%=      5-min Rain = 0
KCH1 091236Z 32005KT M02/M03 A3034 RMK A01 T10191029  RH  093%=      5-min Rain = 0
KCH1 091237Z 32006KT M02/M03 A3034 RMK A01 T10191029  RH  093%=      5-min Rain = 0
KCH1 091238Z 32006KT M02/M03 A3034 RMK A01 T10191029  RH  093%=      5-min Rain = 0
KCH1 091239Z 32006KT M02/M03 A3034 RMK A01 T10191029  RH  093%=      5-min Rain = 0
KCH1 091240Z 32006KT M02/M03 A3034 RMK A01 T10191029  RH  093%=      5-min Rain = 0
KCH1 091241Z 32006KT M02/M03 A3034 RMK A01 T10191028  RH  093%=      5-min Rain = 0
KCH1 091242Z 32005KT M02/M03 A3034 RMK A01 T10191028  RH  093%=      5-min Rain = 0
KCH1 091243Z 32006KT M02/M03 A3034 RMK A01 T10191029  RH  093%=      5-min Rain = 0
KCH1 091244Z 32006KT M02/M03 A3034 RMK A01 T10191029  RH  093%=      5-min Rain = 0
KCH1 091245Z 32007KT M02/M03 A3034 RMK A01 T10191029  RH  093%=      5-min Rain = 0
KCH1 091246Z 33006KT M02/M03 A3034 RMK A01 T10191029  RH  093%=      5-min Rain = 0
KCH1 091247Z 33005KT M02/M03 A3034 RMK A01 T10191029  RH  093%=      5-min Rain = 0
KCH1 091248Z 33005KT M02/M03 A3034 RMK A01 T10191029  RH  093%=      5-min Rain = 0
KCH1 091249Z 33005KT M02/M03 A3034 RMK A01 T10191030  RH  093%=      5-min Rain = 0
KCH1 091250Z 33003KT M02/M03 A3034 RMK A01 T10201030  RH  093%=      5-min Rain = 0
KCH1 091251Z 33003KT M02/M03 A3034 RMK A01 T10201030  RH  093%=      5-min Rain = 0
KCH1 091252Z 33003KT M02/M03 A3034 RMK A01 T10211031  RH  093%=      5-min Rain = 0
KCH1 091253Z 33001KT M02/M03 A3034 RMK A01 T10211031  RH  093%=      5-min Rain = 0
KCH1 091254Z 34001KT M02/M03 A3034 RMK A01 T10211031  RH  093%=      5-min Rain = 0
KCH1 091255Z 35001KT M02/M03 A3034 RMK A01 T10221032  RH  093%=      5-min Rain = 0
KCH1 091256Z 34001KT M02/M03 A3034 RMK A01 T10231032  RH  093%=      5-min Rain = 0
KCH1 091257Z 35002KT M02/M03 A3034 RMK A01 T10231033  RH  093%=      5-min Rain = 0
KCH1 091258Z 33001KT M02/M03 A3034 RMK A01 T10231033  RH  093%=      5-min Rain = 0
KCH1 091259Z 34001KT M02/M03 A3034 RMK A01 T10231032  RH  094%=      5-min Rain = 0
KCH1 091300Z 33001KT M02/M03 A3034 RMK A01 T10231032  RH  094%=      5-min Rain = 0
KCH1 091301Z 33003KT M02/M03 A3034 RMK A01 T10241032  RH  094%=      5-min Rain = 0
KCH1 091302Z 33003KT M02/M03 A3034 RMK A01 T10231031  RH  094%=      5-min Rain = 0
KCH1 091303Z 33004KT M02/M03 A3034 RMK A01 T10231030  RH  095%=      5-min Rain = 0
KCH1 091304Z 33004KT M02/M03 A3034 RMK A01 T10231030  RH  095%=      5-min Rain = 0
KCH1 091305Z 33004KT M02/M03 A3034 RMK A01 T10231030  RH  095%=      5-min Rain = 0
KCH1 091306Z 32005KT M02/M03 A3034 RMK A01 T10221030  RH  095%=      5-min Rain = 0
KCH1 091307Z 32006KT M02/M03 A3034 RMK A01 T10221030  RH  095%=      5-min Rain = 0
KCH1 091308Z 33006KT M02/M03 A3034 RMK A01 T10211029  RH  095%=      5-min Rain = 0
KCH1 091309Z 32006KT M02/M03 A3034 RMK A01 T10211029  RH  094%=      5-min Rain = 0
KCH1 091310Z 32006KT M02/M03 A3034 RMK A01 T10211029  RH  094%=      5-min Rain = 0
KCH1 091311Z 32006KT M02/M03 A3034 RMK A01 T10211029  RH  094%=      5-min Rain = 0
KCH1 091312Z 32007KT M02/M03 A3034 RMK A01 T10211030  RH  094%=      5-min Rain = 0
KCH1 091313Z 33006KT M02/M03 A3034 RMK A01 T10211030  RH  094%=      5-min Rain = 0
KCH1 091314Z 33006KT M02/M03 A3034 RMK A01 T10211030  RH  093%=      5-min Rain = 0
KCH1 091315Z 33006KT M02/M03 A3034 RMK A01 T10201030  RH  093%=      5-min Rain = 0
KCH1 091316Z 33005KT M02/M03 A3034 RMK A01 T10211030  RH  093%=      5-min Rain = 0
KCH1 091317Z 33005KT M02/M03 A3034 RMK A01 T10211031  RH  093%=      5-min Rain = 0
KCH1 091318Z 33005KT M02/M03 A3035 RMK A01 T10211031  RH  093%=      5-min Rain = 0
KCH1 091319Z 32005KT M02/M03 A3035 RMK A01 T10211032  RH  093%=      5-min Rain = 0
KCH1 091320Z 32005KT M02/M03 A3035 RMK A01 T10211032  RH  093%=      5-min Rain = 0
KCH1 091321Z 32005KT M02/M03 A3035 RMK A01 T10211032  RH  093%=      5-min Rain = 0
KCH1 091322Z 32005KT M02/M03 A3035 RMK A01 T10221032  RH  093%=      5-min Rain = 0
KCH1 091323Z 31005KT M02/M03 A3035 RMK A01 T10221033  RH  093%=      5-min Rain = 0
KCH1 091324Z 32005KT M02/M03 A3035 RMK A01 T10231033  RH  093%=      5-min Rain = 0
KCH1 091325Z 32005KT M02/M03 A3035 RMK A01 T10231033  RH  093%=      5-min Rain = 0
KCH1 091326Z 32006KT M02/M03 A3035 RMK A01 T10231032  RH  093%=      5-min Rain = 0
KCH1 091327Z 32005KT M02/M03 A3035 RMK A01 T10231033  RH  093%=      5-min Rain = 0
KCH1 091328Z 32005KT M02/M03 A3035 RMK A01 T10231032  RH  093%=      5-min Rain = 0
KCH1 091329Z 32006KT M02/M03 A3035 RMK A01 T10231033  RH  093%=      5-min Rain = 0
KCH1 091330Z 33006KT M02/M03 A3035 RMK A01 T10241033  RH  093%=      5-min Rain = 0
KCH1 091331Z 33007KT M02/M03 A3035 RMK A01 T10231032  RH  094%=      5-min Rain = 0
KCH1 091332Z 33007KT M02/M03 A3035 RMK A01 T10231032  RH  094%=      5-min Rain = 0
KCH1 091333Z 33006KT M02/M03 A3035 RMK A01 T10231032  RH  093%=      5-min Rain = 0
KCH1 091334Z 33006KT M02/M03 A3035 RMK A01 T10231033  RH  093%=      5-min Rain = 0
KCH1 091335Z 33006KT M02/M03 A3035 RMK A01 T10231033  RH  093%=      5-min Rain = 0
KCH1 091336Z 33005KT M02/M03 A3035 RMK A01 T10231033  RH  093%=      5-min Rain = 0
KCH1 091337Z 32006KT M02/M03 A3035 RMK A01 T10231033  RH  093%=      5-min Rain = 0
KCH1 091338Z 32006KT M02/M03 A3035 RMK A01 T10231034  RH  092%=      5-min Rain = 0
KCH1 091339Z 32006KT M02/M03 A3035 RMK A01 T10231033  RH  092%=      5-min Rain = 0
KCH1 091340Z 32006KT M02/M03 A3035 RMK A01 T10231034  RH  092%=      5-min Rain = 0
KCH1 091341Z 32006KT M02/M03 A3036 RMK A01 T10231034  RH  092%=      5-min Rain = 0
KCH1 091342Z 32007KT M02/M03 A3036 RMK A01 T10231034  RH  093%=      5-min Rain = 0
KCH1 091343Z 32006KT M02/M03 A3036 RMK A01 T10231033  RH  093%=      5-min Rain = 0
KCH1 091344Z 32006KT M02/M03 A3036 RMK A01 T10231033  RH  093%=      5-min Rain = 0
KCH1 091345Z 32006KT M02/M03 A3036 RMK A01 T10231033  RH  093%=      5-min Rain = 0
KCH1 091346Z 32006KT M02/M03 A3036 RMK A01 T10231033  RH  093%=      5-min Rain = 0
KCH1 091347Z 32005KT M02/M03 A3036 RMK A01 T10221032  RH  093%=      5-min Rain = 0
KCH1 091348Z 32005KT M02/M03 A3036 RMK A01 T10211032  RH  092%=      5-min Rain = 0
KCH1 091349Z 32006KT M02/M03 A3036 RMK A01 T10211032  RH  092%=      5-min Rain = 0
KCH1 091350Z 32005KT M02/M03 A3036 RMK A01 T10201032  RH  092%=      5-min Rain = 0
KCH1 091351Z 32004KT M02/M03 A3036 RMK A01 T10201033  RH  091%=      5-min Rain = 0
KCH1 091352Z 32004KT M02/M03 A3036 RMK A01 T10201033  RH  091%=      5-min Rain = 0
KCH1 091353Z 32005KT M02/M03 A3036 RMK A01 T10201033  RH  091%=      5-min Rain = 0
KCH1 091354Z 32004KT M02/M03 A3036 RMK A01 T10201033  RH  091%=      5-min Rain = 0
KCH1 091355Z 32004KT M02/M03 A3037 RMK A01 T10201033  RH  091%=      5-min Rain = 0
KCH1 091356Z 32004KT M02/M03 A3037 RMK A01 T10201033  RH  091%=      5-min Rain = 0
KCH1 091357Z 31005KT M02/M03 A3037 RMK A01 T10201033  RH  091%=      5-min Rain = 0
KCH1 091358Z 31005KT M02/M03 A3037 RMK A01 T10191033  RH  091%=      5-min Rain = 0
KCH1 091359Z 31004KT M02/M03 A3037 RMK A01 T10191033  RH  091%=      5-min Rain = 0
KCH1 091400Z 32004KT M02/M03 A3037 RMK A01 T10191033  RH  090%=      5-min Rain = 0
KCH1 091401Z 32005KT M02/M03 A3037 RMK A01 T10191033  RH  090%=      5-min Rain = 0
KCH1 091402Z 31005KT M02/M03 A3037 RMK A01 T10191033  RH  090%=      5-min Rain = 0
KCH1 091403Z 32004KT M02/M03 A3037 RMK A01 T10181032  RH  090%=      5-min Rain = 0
KCH1 091404Z 32004KT M02/M03 A3037 RMK A01 T10181032  RH  090%=      5-min Rain = 0
KCH1 091405Z 32004KT M02/M03 A3037 RMK A01 T10181032  RH  090%=      5-min Rain = 0
KCH1 091406Z 32005KT M02/M03 A3037 RMK A01 T10171032  RH  090%=      5-min Rain = 0
KCH1 091407Z 32004KT M02/M03 A3037 RMK A01 T10171032  RH  089%=      5-min Rain = 0
KCH1 091408Z 32004KT M02/M03 A3037 RMK A01 T10171032  RH  089%=      5-min Rain = 0
KCH1 091409Z 32005KT M02/M03 A3037 RMK A01 T10171032  RH  089%=      5-min Rain = 0
KCH1 091410Z 32005KT M02/M03 A3037 RMK A01 T10161033  RH  088%=      5-min Rain = 0
KCH1 091411Z 32004KT M02/M03 A3037 RMK A01 T10161033  RH  088%=      5-min Rain = 0
KCH1 091412Z 32005KT M02/M03 A3037 RMK A01 T10161033  RH  088%=      5-min Rain = 0
KCH1 091413Z 32005KT M02/M03 A3037 RMK A01 T10161033  RH  088%=      5-min Rain = 0
KCH1 091414Z 32004KT M02/M03 A3037 RMK A01 T10151032  RH  088%=      5-min Rain = 0
KCH1 091415Z 32006KT M02/M03 A3037 RMK A01 T10151032  RH  088%=      5-min Rain = 0
KCH1 091416Z 32005KT M02/M03 A3038 RMK A01 T10151032  RH  088%=      5-min Rain = 0
KCH1 091417Z 32006KT M02/M03 A3038 RMK A01 T10151032  RH  088%=      5-min Rain = 0
KCH1 091418Z 32005KT M02/M03 A3038 RMK A01 T10151032  RH  088%=      5-min Rain = 0
KCH1 091419Z 32005KT M01/M03 A3038 RMK A01 T10141032  RH  088%=      5-min Rain = 0
KCH1 091420Z 32005KT M01/M03 A3038 RMK A01 T10141031  RH  088%=      5-min Rain = 0
KCH1 091421Z 32004KT M01/M03 A3038 RMK A01 T10141031  RH  088%=      5-min Rain = 0
KCH1 091422Z 33005KT M01/M03 A3038 RMK A01 T10141031  RH  088%=      5-min Rain = 0
KCH1 091423Z 33005KT M01/M03 A3038 RMK A01 T10141031  RH  088%=      5-min Rain = 0
KCH1 091424Z 32005KT M01/M03 A3038 RMK A01 T10131031  RH  088%=      5-min Rain = 0
KCH1 091425Z 33006KT M01/M03 A3038 RMK A01 T10131031  RH  088%=      5-min Rain = 0
KCH1 091426Z 33005KT M01/M03 A3038 RMK A01 T10131031  RH  088%=      5-min Rain = 0
KCH1 091427Z 33006KT M01/M03 A3038 RMK A01 T10131031  RH  088%=      5-min Rain = 0
KCH1 091428Z 34006KT M01/M03 A3038 RMK A01 T10121031  RH  087%=      5-min Rain = 0
KCH1 091429Z 34006KT M01/M03 A3038 RMK A01 T10121031  RH  087%=      5-min Rain = 0
KCH1 091430Z 34005KT M01/M03 A3038 RMK A01 T10121032  RH  087%=      5-min Rain = 0
KCH1 091431Z 35006KT M01/M03 A3038 RMK A01 T10121031  RH  087%=      5-min Rain = 0
KCH1 091432Z 35006KT M01/M03 A3038 RMK A01 T10111031  RH  087%=      5-min Rain = 0
KCH1 091433Z 35005KT M01/M03 A3038 RMK A01 T10111031  RH  086%=      5-min Rain = 0
KCH1 091434Z 35007KT M01/M03 A3038 RMK A01 T10101030  RH  087%=      5-min Rain = 0
KCH1 091435Z 34006KT M01/M03 A3038 RMK A01 T10101029  RH  087%=      5-min Rain = 0
KCH1 091436Z 34004KT M01/M03 A3038 RMK A01 T10091029  RH  087%=      5-min Rain = 0
KCH1 091437Z 34005KT M01/M03 A3038 RMK A01 T10091029  RH  086%=      5-min Rain = 0
KCH1 091438Z 34005KT M01/M03 A3038 RMK A01 T10081028  RH  087%=      5-min Rain = 0
KCH1 091439Z 34004KT M01/M03 A3038 RMK A01 T10071027  RH  086%=      5-min Rain = 0
KCH1 091440Z 34004KT M01/M03 A3038 RMK A01 T10071027  RH  086%=      5-min Rain = 0
KCH1 091441Z 33003KT M01/M03 A3038 RMK A01 T10061026  RH  086%=      5-min Rain = 0
KCH1 091442Z 33003KT M01/M03 A3038 RMK A01 T10061026  RH  086%=      5-min Rain = 0
KCH1 091443Z 33004KT M01/M03 A3038 RMK A01 T10051025  RH  086%=      5-min Rain = 0
KCH1 091444Z 34004KT M01/M03 A3038 RMK A01 T10051026  RH  086%=      5-min Rain = 0
KCH1 091445Z 34003KT M00/M03 A3038 RMK A01 T10041025  RH  086%=      5-min Rain = 0
KCH1 091446Z 33005KT M00/M03 A3038 RMK A01 T10031025  RH  085%=      5-min Rain = 0
KCH1 091447Z 33004KT M00/M03 A3038 RMK A01 T10031028  RH  084%=      5-min Rain = 0
KCH1 091448Z 33005KT M00/M03 A3038 RMK A01 T10031028  RH  084%=      5-min Rain = 0
KCH1 091449Z 34004KT M00/M03 A3038 RMK A01 T10031027  RH  084%=      5-min Rain = 0
KCH1 091450Z 34004KT M00/M03 A3038 RMK A01 T10031026  RH  084%=      5-min Rain = 0
KCH1 091451Z 33004KT M00/M03 A3038 RMK A01 T10021026  RH  084%=      5-min Rain = 0
KCH1 091452Z 34004KT M00/M03 A3038 RMK A01 T10021027  RH  084%=      5-min Rain = 0
KCH1 091453Z 35004KT M00/M03 A3038 RMK A01 T10021026  RH  084%=      5-min Rain = 0
KCH1 091454Z 35004KT M00/M03 A3038 RMK A01 T10021025  RH  084%=      5-min Rain = 0
KCH1 091455Z 35005KT M00/M03 A3038 RMK A01 T10011027  RH  083%=      5-min Rain = 0
KCH1 091456Z 35005KT M00/M03 A3039 RMK A01 T10011028  RH  082%=      5-min Rain = 0
KCH1 091457Z 34005KT M00/M03 A3039 RMK A01 T10011028  RH  082%=      5-min Rain = 0
KCH1 091458Z 35003KT M00/M03 A3039 RMK A01 T10011028  RH  082%=      5-min Rain = 0
KCH1 091459Z 35002KT 00/02 A3039 RMK A01 T00-00-24  RH  084%=      5-min Rain = 0
KCH1 091500Z 36004KT 00/M02 A3039 RMK A01 T00011022  RH  084%=      5-min Rain = 0
KCH1 091501Z 35005KT 00/M02 A3039 RMK A01 T00021023  RH  083%=      5-min Rain = 0
KCH1 091502Z 34005KT 00/M03 A3039 RMK A01 T00011027  RH  081%=      5-min Rain = 0
KCH1 091503Z 35004KT 00/M03 A3039 RMK A01 T00011028  RH  081%=      5-min Rain = 0
KCH1 091504Z 35004KT 00/M03 A3039 RMK A01 T00011028  RH  081%=      5-min Rain = 0
KCH1 091505Z 01003KT 00/M03 A3039 RMK A01 T00021025  RH  082%=      5-min Rain = 0
KCH1 091506Z 36005KT 00/M02 A3039 RMK A01 T00031024  RH  083%=      5-min Rain = 0
KCH1 091507Z 00006KT 00/M03 A3039 RMK A01 T00031025  RH  082%=      5-min Rain = 0
KCH1 091508Z 35005KT 00/M03 A3039 RMK A01 T00031026  RH  081%=      5-min Rain = 0
KCH1 091509Z 34005KT 00/M03 A3039 RMK A01 T00031027  RH  080%=      5-min Rain = 0
KCH1 091510Z 35005KT 00/M03 A3039 RMK A01 T00031027  RH  080%=      5-min Rain = 0
KCH1 091511Z 34004KT 00/M03 A3039 RMK A01 T00041027  RH  080%=      5-min Rain = 0
KCH1 091512Z 34006KT 00/M03 A3039 RMK A01 T00041027  RH  080%=      5-min Rain = 0
KCH1 091513Z 33006KT 01/M03 A3039 RMK A01 T00051027  RH  079%=      5-min Rain = 0
KCH1 091514Z 34007KT 01/M03 A3039 RMK A01 T00051026  RH  080%=      5-min Rain = 0
KCH1 091515Z 35006KT 01/M03 A3039 RMK A01 T00051026  RH  080%=      5-min Rain = 0
KCH1 091516Z 34005KT 00/M03 A3039 RMK A01 T00041028  RH  079%=      5-min Rain = 0
KCH1 091517Z 33005KT 01/M02 A3039 RMK A01 T00051024  RH  081%=      5-min Rain = 0
KCH1 091518Z 33007KT 01/M02 A3039 RMK A01 T00061023  RH  081%=      5-min Rain = 0
KCH1 091519Z 33006KT 01/M02 A3039 RMK A01 T00061024  RH  080%=      5-min Rain = 0
KCH1 091520Z 33006KT 01/M03 A304 RMK A01 T00061025  RH  080%=      5-min Rain = 0
KCH1 091521Z 34007KT 01/M03 A304 RMK A01 T00061027  RH  079%=      5-min Rain = 0
KCH1 091522Z 34008KT 01/M03 A304 RMK A01 T00071026  RH  079%=      5-min Rain = 0
KCH1 091523Z 36007KT 01/M03 A304 RMK A01 T00071031  RH  076%=      5-min Rain = 0
KCH1 091524Z 34005KT 01/M03 A304 RMK A01 T00081029  RH  076%=      5-min Rain = 0
KCH1 091525Z 34007KT 01/M03 A304 RMK A01 T00091028  RH  076%=      5-min Rain = 0
KCH1 091526Z 33006KT 01/M03 A304 RMK A01 T00091028  RH  076%=      5-min Rain = 0
KCH1 091527Z 34007KT 01/M03 A304 RMK A01 T00101026  RH  077%=      5-min Rain = 0
KCH1 091528Z 34005KT 01/M03 A304 RMK A01 T00101027  RH  076%=      5-min Rain = 0
KCH1 091529Z 36004KT 01/M03 A304 RMK A01 T00101027  RH  076%=      5-min Rain = 0
KCH1 091530Z 34004KT 01/M02 A304 RMK A01 T00121024  RH  077%=      5-min Rain = 0
KCH1 091531Z 35006KT 01/M03 A304 RMK A01 T00121028  RH  075%=      5-min Rain = 0
KCH1 091532Z 34007KT 01/M03 A304 RMK A01 T00131029  RH  074%=      5-min Rain = 0
KCH1 091533Z 33007KT 01/M03 A304 RMK A01 T00131029  RH  074%=      5-min Rain = 0
KCH1 091534Z 33005KT 01/M03 A304 RMK A01 T00131031  RH  072%=      5-min Rain = 0
KCH1 091535Z 34005KT 01/M03 A304 RMK A01 T00141026  RH  075%=      5-min Rain = 0
KCH1 091536Z 34005KT 01/M03 A304 RMK A01 T00141028  RH  073%=      5-min Rain = 0
KCH1 091537Z 33006KT 02/M03 A304 RMK A01 T00151026  RH  074%=      5-min Rain = 0
KCH1 091538Z 33006KT 02/M03 A304 RMK A01 T00151025  RH  074%=      5-min Rain = 0
KCH1 091539Z 33005KT 02/M03 A304 RMK A01 T00161026  RH  074%=      5-min Rain = 0
KCH1 091540Z 33007KT 02/M03 A304 RMK A01 T00161028  RH  072%=      5-min Rain = 0
KCH1 091541Z 33006KT 02/M03 A304 RMK A01 T00151028  RH  073%=      5-min Rain = 0
KCH1 091542Z 32006KT 02/M03 A304 RMK A01 T00151030  RH  072%=      5-min Rain = 0
KCH1 091543Z 33006KT 02/M03 A304 RMK A01 T00151029  RH  073%=      5-min Rain = 0
KCH1 091544Z 35006KT 02/M03 A3041 RMK A01 T00161027  RH  073%=      5-min Rain = 0
KCH1 091545Z 36007KT 02/M03 A3041 RMK A01 T00171028  RH  072%=      5-min Rain = 0
KCH1 091546Z 01006KT 02/M03 A3041 RMK A01 T00181031  RH  070%=      5-min Rain = 0
KCH1 091547Z 01006KT 02/M03 A3041 RMK A01 T00181030  RH  070%=      5-min Rain = 0
KCH1 091548Z 00004KT 02/M03 A3041 RMK A01 T00181029  RH  071%=      5-min Rain = 0
KCH1 091549Z 35005KT 02/M03 A3041 RMK A01 T00191025  RH  073%=      5-min Rain = 0
KCH1 091550Z 35005KT 02/M03 A3041 RMK A01 T00201025  RH  072%=      5-min Rain = 0
KCH1 091551Z 36006KT 02/M03 A3041 RMK A01 T00211029  RH  070%=      5-min Rain = 0
KCH1 091552Z 00005KT 02/M03 A3041 RMK A01 T00211029  RH  069%=      5-min Rain = 0
KCH1 091553Z 35004KT 02/M03 A3041 RMK A01 T00211025  RH  072%=      5-min Rain = 0
KCH1 091554Z 36004KT 02/M02 A3041 RMK A01 T00231020  RH  073%=      5-min Rain = 0
KCH1 091555Z 01006KT 02/M03 A3041 RMK A01 T00241025  RH  070%=      5-min Rain = 0
KCH1 091556Z 35005KT 02/M03 A3041 RMK A01 T00241029  RH  068%=      5-min Rain = 0
KCH1 091557Z 34003KT 03/M03 A3041 RMK A01 T00251029  RH  068%=      5-min Rain = 0
KCH1 091558Z 35004KT 03/M02 A3041 RMK A01 T00261023  RH  070%=      5-min Rain = 0
KCH1 091559Z 34005KT 03/M03 A3041 RMK A01 T00271025  RH  069%=      5-min Rain = 0
KCH1 091600Z 33005KT 03/M03 A3041 RMK A01 T00271030  RH  066%=      5-min Rain = 0
KCH1 091601Z 32006KT 03/M03 A3041 RMK A01 T00281033  RH  064%=      5-min Rain = 0
KCH1 091602Z 33007KT 03/M04 A3041 RMK A01 T00271036  RH  063%=      5-min Rain = 0
KCH1 091603Z 35008KT 03/M03 A3041 RMK A01 T00281034  RH  064%=      5-min Rain = 0
KCH1 091604Z 35008KT 03/M04 A3041 RMK A01 T00291037  RH  062%=      5-min Rain = 0
KCH1 091605Z 01007KT 03/M04 A3041 RMK A01 T00301044  RH  058%=      5-min Rain = 0
KCH1 091606Z 00007KT 03/M04 A3041 RMK A01 T00301043  RH  059%=      5-min Rain = 0
KCH1 091607Z 34008KT 03/M05 A3041 RMK A01 T00301047  RH  057%=      5-min Rain = 0
KCH1 091608Z 01006KT 03/M04 A3041 RMK A01 T00311044  RH  058%=      5-min Rain = 0
KCH1 091609Z 01009KT 03/M05 A3041 RMK A01 T00321047  RH  056%=      5-min Rain = 0
KCH1 091610Z 35008KT 03/M05 A3041 RMK A01 T00321050  RH  055%=      5-min Rain = 0
KCH1 091611Z 36007KT 03/M05 A3041 RMK A01 T00321047  RH  056%=      5-min Rain = 0
KCH1 091612Z 36009KT 03/M05 A3041 RMK A01 T00331046  RH  056%=      5-min Rain = 0
KCH1 091613Z 35007KT 03/M05 A3041 RMK A01 T00331047  RH  056%=      5-min Rain = 0
KCH1 091614Z 35008KT 03/M05 A3041 RMK A01 T00331052  RH  054%=      5-min Rain = 0
KCH1 091615Z 01006KT 03/M05 A3041 RMK A01 T00331052  RH  054%=      5-min Rain = 0
KCH1 091616Z 35004KT 03/M04 A3041 RMK A01 T00341044  RH  057%=      5-min Rain = 0
KCH1 091617Z 33009KT 04/M04 A3041 RMK A01 T00371042  RH  056%=      5-min Rain = 0
KCH1 091618Z 34010KT 04/M05 A3041 RMK A01 T00371054  RH  052%=      5-min Rain = 0
KCH1 091619Z 34006KT 04/M06 A3041 RMK A01 T00351055  RH  052%=      5-min Rain = 0
KCH1 091620Z 35009KT 04/M05 A3041 RMK A01 T00351052  RH  053%=      5-min Rain = 0
KCH1 091621Z 34008KT 04/M06 A3041 RMK A01 T00351055  RH  052%=      5-min Rain = 0
KCH1 091622Z 35009KT 04/M06 A3041 RMK A01 T00351056  RH  051%=      5-min Rain = 0
KCH1 091623Z 35006KT 04/M06 A3041 RMK A01 T00351055  RH  052%=      5-min Rain = 0
KCH1 091624Z 34007KT 04/M05 A3041 RMK A01 T00371051  RH  053%=      5-min Rain = 0
KCH1 091625Z 35007KT 04/M05 A3041 RMK A01 T00381047  RH  054%=      5-min Rain = 0
KCH1 091626Z 00006KT 04/M05 A3041 RMK A01 T00401045  RH  054%=      5-min Rain = 0
KCH1 091627Z 36007KT 04/M04 A3041 RMK A01 T00421042  RH  054%=      5-min Rain = 0
KCH1 091628Z 01010KT 04/M05 A3041 RMK A01 T00431048  RH  051%=      5-min Rain = 0
KCH1 091629Z 00009KT 04/M06 A3041 RMK A01 T00431055  RH  049%=      5-min Rain = 0
KCH1 091630Z 01009KT 04/M06 A3041 RMK A01 T00421056  RH  049%=      5-min Rain = 0
KCH1 091631Z 01008KT 04/M06 A3041 RMK A01 T00411057  RH  049%=      5-min Rain = 0
KCH1 091632Z 01007G12KT 04/M06 A3041 RMK A01 T00411058  RH  049%=      5-min Rain = 0
KCH1 091633Z 35010KT 04/M06 A3041 RMK A01 T00401058  RH  049%=      5-min Rain = 0
KCH1 091634Z 35006KT 04/M06 A3041 RMK A01 T00401058  RH  049%=      5-min Rain = 0
KCH1 091635Z 35007KT 04/M05 A3041 RMK A01 T00421050  RH  051%=      5-min Rain = 0
KCH1 091636Z 36008KT 04/M05 A3041 RMK A01 T00441053  RH  049%=      5-min Rain = 0
KCH1 091637Z 35008KT 04/M06 A3041 RMK A01 T00431058  RH  048%=      5-min Rain = 0
KCH1 091638Z 35008KT 04/M06 A3041 RMK A01 T00421059  RH  048%=      5-min Rain = 0
KCH1 091639Z 34008KT 04/M06 A3041 RMK A01 T00421056  RH  049%=      5-min Rain = 0
KCH1 091640Z 35008KT 04/M05 A3041 RMK A01 T00441052  RH  050%=      5-min Rain = 0
KCH1 091641Z 00008KT 05/M06 A3041 RMK A01 T00461055  RH  048%=      5-min Rain = 0
KCH1 091642Z 36009KT 05/M06 A3041 RMK A01 T00461056  RH  048%=      5-min Rain = 0
KCH1 091643Z 00010KT 05/M06 A3041 RMK A01 T00451058  RH  047%=      5-min Rain = 0
KCH1 091644Z 36006KT 04/M06 A3041 RMK A01 T00441060  RH  047%=      5-min Rain = 0
KCH1 091645Z 34008KT 04/M06 A3041 RMK A01 T00441055  RH  049%=      5-min Rain = 0
KCH1 091646Z 34007KT 05/M05 A3041 RMK A01 T00451053  RH  049%=      5-min Rain = 0
KCH1 091647Z 36009KT 05/M05 A3041 RMK A01 T00471045  RH  051%=      5-min Rain = 0
KCH1 091648Z 01007KT 05/M04 A3041 RMK A01 T00481044  RH  051%=      5-min Rain = 0
KCH1 091649Z 02008KT 05/M04 A3041 RMK A01 T00481044  RH  051%=      5-min Rain = 0
KCH1 091650Z 01009KT 05/M04 A3041 RMK A01 T00481044  RH  052%=      5-min Rain = 0
KCH1 091651Z 35004KT 05/M04 A3041 RMK A01 T00481042  RH  052%=      5-min Rain = 0
KCH1 091652Z 35005KT 05/M04 A3041 RMK A01 T00501039  RH  053%=      5-min Rain = 0
KCH1 091653Z 35004KT 05/M04 A3041 RMK A01 T00511043  RH  051%=      5-min Rain = 0
KCH1 091654Z 36007KT 05/M05 A3041 RMK A01 T00511045  RH  050%=      5-min Rain = 0
KCH1 091655Z 34008KT 05/M04 A3041 RMK A01 T00501043  RH  051%=      5-min Rain = 0
KCH1 091656Z 34008KT 05/M04 A3041 RMK A01 T00501043  RH  051%=      5-min Rain = 0
KCH1 091657Z 34006KT 05/M04 A3041 RMK A01 T00491041  RH  052%=      5-min Rain = 0
KCH1 091658Z 34005KT 05/M04 A3041 RMK A01 T00501039  RH  053%=      5-min Rain = 0
KCH1 091659Z 34007KT 05/M04 A3041 RMK A01 T00511039  RH  052%=      5-min Rain = 0
KCH1 091700Z 34010KT 05/M04 A3041 RMK A01 T00501038  RH  053%=      5-min Rain = 0
KCH1 091701Z 35008KT 05/M04 A3041 RMK A01 T00491038  RH  053%=      5-min Rain = 0
KCH1 091702Z 00007KT 05/M04 A3041 RMK A01 T00491038  RH  053%=      5-min Rain = 0
KCH1 091703Z 35005KT 05/M04 A3041 RMK A01 T00481040  RH  053%=      5-min Rain = 0
KCH1 091704Z 34008KT 05/M04 A3041 RMK A01 T00481037  RH  054%=      5-min Rain = 0
KCH1 091705Z 35009KT 05/M03 A3041 RMK A01 T00501033  RH  055%=      5-min Rain = 0
KCH1 091706Z 34006KT 05/M03 A3041 RMK A01 T00511034  RH  054%=      5-min Rain = 0
KCH1 091707Z 34007KT 05/M03 A3041 RMK A01 T00511032  RH  055%=      5-min Rain = 0
KCH1 091708Z 36006KT 05/M03 A3041 RMK A01 T00521029  RH  056%=      5-min Rain = 0
KCH1 091709Z 36005KT 06/M03 A3041 RMK A01 T00551027  RH  056%=      5-min Rain = 0
KCH1 091710Z 01005KT 06/M03 A3041 RMK A01 T00571027  RH  055%=      5-min Rain = 0
KCH1 091711Z 35009KT 06/M03 A3041 RMK A01 T00571028  RH  054%=      5-min Rain = 0
KCH1 091712Z 01006KT 05/M03 A3041 RMK A01 T00541030  RH  055%=      5-min Rain = 0
KCH1 091713Z 00008KT 05/M03 A3041 RMK A01 T00541025  RH  057%=      5-min Rain = 0
KCH1 091714Z 00010KT 06/M02 A3041 RMK A01 T00561024  RH  056%=      5-min Rain = 0
KCH1 091715Z 35006KT 06/M03 A3041 RMK A01 T00551026  RH  056%=      5-min Rain = 0
KCH1 091716Z 01006KT 06/M03 A3041 RMK A01 T00551026  RH  056%=      5-min Rain = 0
KCH1 091717Z 35008KT 06/M02 A3041 RMK A01 T00561022  RH  057%=      5-min Rain = 0
KCH1 091718Z 35010KT 06/M02 A3041 RMK A01 T00571023  RH  057%=      5-min Rain = 0
KCH1 091719Z 35008KT 06/M03 A3041 RMK A01 T00551025  RH  056%=      5-min Rain = 0
KCH1 091720Z 33008KT 05/M02 A3041 RMK A01 T00541024  RH  057%=      5-min Rain = 0
KCH1 091721Z 01006KT 06/M02 A3041 RMK A01 T00551019  RH  059%=      5-min Rain = 0
KCH1 091722Z 01006KT 06/M01 A3041 RMK A01 T00571014  RH  060%=      5-min Rain = 0
KCH1 091723Z 02008KT 06/M01 A3041 RMK A01 T00591014  RH  059%=      5-min Rain = 0
KCH1 091724Z 03008KT 06/M02 A304 RMK A01 T00591017  RH  058%=      5-min Rain = 0
KCH1 091725Z 03008KT 06/M02 A304 RMK A01 T00591017  RH  058%=      5-min Rain = 0
KCH1 091726Z 03008KT 06/M02 A304 RMK A01 T00591018  RH  058%=      5-min Rain = 0
KCH1 091727Z 02006KT 06/M02 A304 RMK A01 T00591016  RH  058%=      5-min Rain = 0
KCH1 091728Z 01007KT 06/M01 A304 RMK A01 T00601014  RH  059%=      5-min Rain = 0
KCH1 091729Z 01005KT 06/M02 A304 RMK A01 T00611017  RH  057%=      5-min Rain = 0
KCH1 091730Z 01005KT 06/M02 A304 RMK A01 T00601016  RH  058%=      5-min Rain = 0
KCH1 091731Z 01005KT 06/M02 A304 RMK A01 T00601016  RH  058%=      5-min Rain = 0
KCH1 091732Z 03005KT 06/M02 A304 RMK A01 T00601016  RH  058%=      5-min Rain = 0
KCH1 091733Z 02003KT 06/M02 A304 RMK A01 T00601015  RH  059%=      5-min Rain = 0
KCH1 091734Z 03004G9KT 06/M01 A304 RMK A01 T00621011  RH  059%=      5-min Rain = 0
KCH1 091735Z 00007KT 06/M01 A304 RMK A01 T00641011  RH  059%=      5-min Rain = 0
KCH1 091736Z 01007KT 06/M01 A304 RMK A01 T00641012  RH  058%=      5-min Rain = 0
KCH1 091737Z 34005KT 06/M01 A304 RMK A01 T00621014  RH  058%=      5-min Rain = 0
KCH1 091738Z 35007KT 06/M02 A304 RMK A01 T00591018  RH  058%=      5-min Rain = 0
KCH1 091739Z 34008KT 06/M02 A304 RMK A01 T00581015  RH  059%=      5-min Rain = 0
KCH1 091740Z 02007KT 06/M01 A304 RMK A01 T00581012  RH  061%=      5-min Rain = 0
KCH1 091741Z 02006KT 06/M01 A304 RMK A01 T00611009  RH  061%=      5-min Rain = 0
KCH1 091742Z 36006KT 06/M01 A304 RMK A01 T00631008  RH  060%=      5-min Rain = 0
KCH1 091743Z 01008KT 06/M01 A304 RMK A01 T00641009  RH  060%=      5-min Rain = 0
KCH1 091744Z 02007KT 06/M01 A304 RMK A01 T00621013  RH  058%=      5-min Rain = 0
KCH1 091745Z 04006KT 06/M01 A304 RMK A01 T00601014  RH  059%=      5-min Rain = 0
KCH1 091746Z 35005G10KT 06/M01 A304 RMK A01 T00601009  RH  061%=      5-min Rain = 0
KCH1 091747Z 36008KT 06/M01 A304 RMK A01 T00611010  RH  060%=      5-min Rain = 0
KCH1 091748Z 00009KT 06/M01 A304 RMK A01 T00621010  RH  060%=      5-min Rain = 0
KCH1 091749Z 35008KT 06/M01 A3039 RMK A01 T00611011  RH  060%=      5-min Rain = 0
KCH1 091750Z 01006KT 06/M01 A3039 RMK A01 T00611009  RH  061%=      5-min Rain = 0
KCH1 091751Z 02008KT 06/M01 A3039 RMK A01 T00631007  RH  061%=      5-min Rain = 0
KCH1 091752Z 02009KT 06/M01 A3039 RMK A01 T00641008  RH  060%=      5-min Rain = 0
KCH1 091753Z 02007KT 06/M01 A304 RMK A01 T00641008  RH  060%=      5-min Rain = 0
KCH1 091754Z 00006KT 06/M01 A304 RMK A01 T00641009  RH  060%=      5-min Rain = 0
KCH1 091755Z 01005KT 06/M01 A304 RMK A01 T00641007  RH  060%=      5-min Rain = 0
KCH1 091756Z 35006KT 07/M01 A3039 RMK A01 T00651006  RH  060%=      5-min Rain = 0
KCH1 091757Z 35008KT 07/M01 A3039 RMK A01 T00661007  RH  059%=      5-min Rain = 0
KCH1 091758Z 02008KT 06/M01 A3039 RMK A01 T00641012  RH  058%=      5-min Rain = 0
KCH1 091759Z 00007KT 06/M01 A3039 RMK A01 T00621009  RH  060%=      5-min Rain = 0
KCH1 091800Z 02006KT 06/M01 A3039 RMK A01 T00641006  RH  061%=      5-min Rain = 0
KCH1 091801Z 03006KT 07/M01 A3039 RMK A01 T00661008  RH  059%=      5-min Rain = 0
KCH1 091802Z 01004KT 07/M01 A3039 RMK A01 T00651009  RH  059%=      5-min Rain = 0
KCH1 091803Z 00009KT 07/M01 A3039 RMK A01 T00651008  RH  060%=      5-min Rain = 0
KCH1 091804Z 01008KT 06/M01 A3039 RMK A01 T00641010  RH  059%=      5-min Rain = 0
KCH1 091805Z 01010KT 06/M01 A3039 RMK A01 T00641010  RH  059%=      5-min Rain = 0
KCH1 091806Z 01007KT 06/M01 A3039 RMK A01 T00641008  RH  060%=      5-min Rain = 0
KCH1 091807Z 35009KT 06/M01 A3039 RMK A01 T00641010  RH  059%=      5-min Rain = 0
KCH1 091808Z 35007KT 06/M01 A3039 RMK A01 T00631010  RH  060%=      5-min Rain = 0
KCH1 091809Z 01005KT 06/M01 A3039 RMK A01 T00631007  RH  061%=      5-min Rain = 0
KCH1 091810Z 02007KT 07/M00 A3039 RMK A01 T00671004  RH  061%=      5-min Rain = 0
KCH1 091811Z 02005KT 07/M01 A3039 RMK A01 T00671009  RH  058%=      5-min Rain = 0
KCH1 091812Z 02007KT 07/M01 A3039 RMK A01 T00661008  RH  059%=      5-min Rain = 0
KCH1 091813Z 01005KT 07/M00 A3039 RMK A01 T00681004  RH  060%=      5-min Rain = 0
KCH1 091814Z 00003KT 07/M01 A3039 RMK A01 T00701005  RH  059%=      5-min Rain = 0
KCH1 091815Z 03005KT 07/M01 A3038 RMK A01 T00711007  RH  058%=      5-min Rain = 0
KCH1 091816Z 35007KT 07/M01 A3038 RMK A01 T00701009  RH  057%=      5-min Rain = 0
KCH1 091817Z 00005KT 07/M01 A3038 RMK A01 T00691009  RH  058%=      5-min Rain = 0
KCH1 091818Z 01006KT 07/M01 A3039 RMK A01 T00691008  RH  058%=      5-min Rain = 0
KCH1 091819Z 01007KT 07/M01 A3038 RMK A01 T00691008  RH  058%=      5-min Rain = 0
KCH1 091820Z 35005KT 07/M01 A3038 RMK A01 T00691009  RH  058%=      5-min Rain = 0
KCH1 091821Z 35007KT 07/M01 A3038 RMK A01 T00681009  RH  058%=      5-min Rain = 0
KCH1 091822Z 35006KT 07/M01 A3038 RMK A01 T00681009  RH  058%=      5-min Rain = 0
KCH1 091823Z 00006KT 07/M01 A3038 RMK A01 T00681007  RH  059%=      5-min Rain = 0
KCH1 091824Z 34006G11KT 07/M01 A3038 RMK A01 T00701006  RH  058%=      5-min Rain = 0
KCH1 091825Z 35010KT 07/M01 A3038 RMK A01 T00701008  RH  057%=      5-min Rain = 0
KCH1 091826Z 35009KT 07/M01 A3038 RMK A01 T00681010  RH  058%=      5-min Rain = 0
KCH1 091827Z 00008KT 07/M01 A3038 RMK A01 T00671009  RH  058%=      5-min Rain = 0
KCH1 091828Z 00010KT 07/M01 A3038 RMK A01 T00671009  RH  058%=      5-min Rain = 0
KCH1 091829Z 01008KT 07/M01 A3038 RMK A01 T00671009  RH  058%=      5-min Rain = 0
KCH1 091830Z 02007KT 07/M01 A3038 RMK A01 T00671011  RH  057%=      5-min Rain = 0
KCH1 091831Z 02005KT 07/M01 A3038 RMK A01 T00661011  RH  058%=      5-min Rain = 0
KCH1 091832Z 02004KT 07/M01 A3038 RMK A01 T00661011  RH  058%=      5-min Rain = 0
KCH1 091833Z 01004KT 07/M01 A3038 RMK A01 T00661009  RH  059%=      5-min Rain = 0
KCH1 091834Z 35004KT 07/M01 A3038 RMK A01 T00691007  RH  058%=      5-min Rain = 0
KCH1 091835Z 01007KT 07/M01 A3038 RMK A01 T00691007  RH  058%=      5-min Rain = 0
KCH1 091836Z 01007KT 07/M01 A3038 RMK A01 T00691009  RH  057%=      5-min Rain = 0
KCH1 091837Z 02006KT 07/M01 A3038 RMK A01 T00691007  RH  058%=      5-min Rain = 0
KCH1 091838Z 03008KT 07/M01 A3038 RMK A01 T00701006  RH  058%=      5-min Rain = 0
KCH1 091839Z 01005KT 07/M01 A3038 RMK A01 T00701005  RH  059%=      5-min Rain = 0
KCH1 091840Z 35008KT 07/M01 A3038 RMK A01 T00711005  RH  058%=      5-min Rain = 0
KCH1 091841Z 00007KT 07/M01 A3038 RMK A01 T00711006  RH  058%=      5-min Rain = 0
KCH1 091842Z 33006KT 07/M01 A3038 RMK A01 T00711007  RH  057%=      5-min Rain = 0
KCH1 091843Z 36002KT 07/M01 A3038 RMK A01 T00671011  RH  058%=      5-min Rain = 0
KCH1 091844Z 34002KT 07/M01 A3038 RMK A01 T00661006  RH  060%=      5-min Rain = 0
KCH1 091845Z 03001KT 07/M00 A3038 RMK A01 T00691003  RH  060%=      5-min Rain = 0
KCH1 091846Z 01006KT 07/M00 A3037 RMK A01 T00721003  RH  059%=      5-min Rain = 0
KCH1 091847Z 34010KT 07/M01 A3037 RMK A01 T00721006  RH  058%=      5-min Rain = 0
KCH1 091848Z 33005KT 07/M01 A3037 RMK A01 T00681009  RH  058%=      5-min Rain = 0
KCH1 091849Z 01006KT 07/M00 A3037 RMK A01 T00671004  RH  060%=      5-min Rain = 0
KCH1 091850Z 36008KT 07/M00 A3037 RMK A01 T00711001  RH  060%=      5-min Rain = 0
KCH1 091851Z 01007KT 07/M01 A3037 RMK A01 T00721005  RH  058%=      5-min Rain = 0
KCH1 091852Z 36007KT 07/M01 A3037 RMK A01 T00711006  RH  058%=      5-min Rain = 0
KCH1 091853Z 00005KT 07/M01 A3037 RMK A01 T00691008  RH  058%=      5-min Rain = 0
KCH1 091854Z 00005KT 07/M01 A3037 RMK A01 T00681007  RH  059%=      5-min Rain = 0
KCH1 091855Z 35003KT 07/M01 A3037 RMK A01 T00681006  RH  059%=      5-min Rain = 0
KCH1 091856Z 00009KT 07/M01 A3037 RMK A01 T00681006  RH  059%=      5-min Rain = 0
KCH1 091857Z 35007KT 07/M01 A3037 RMK A01 T00681006  RH  059%=      5-min Rain = 0
KCH1 091858Z 35005KT 07/M01 A3037 RMK A01 T00681007  RH  059%=      5-min Rain = 0
KCH1 091859Z 34006KT 07/M01 A3037 RMK A01 T00691005  RH  060%=      5-min Rain = 0
KCH1 091900Z 00008KT 07/M00 A3037 RMK A01 T00711003  RH  060%=      5-min Rain = 0
KCH1 091901Z 36006KT 07/M01 A3037 RMK A01 T00711007  RH  057%=      5-min Rain = 0
KCH1 091902Z 35005KT 07/M01 A3037 RMK A01 T00701008  RH  057%=      5-min Rain = 0
KCH1 091903Z 00005KT 07/M01 A3037 RMK A01 T00691008  RH  058%=      5-min Rain = 0
KCH1 091904Z 03006KT 07/M01 A3037 RMK A01 T00701005  RH  059%=      5-min Rain = 0
KCH1 091905Z 05006KT 07/M00 A3037 RMK A01 T00721003  RH  059%=      5-min Rain = 0
KCH1 091906Z 05008KT 07/M00 A3037 RMK A01 T00741004  RH  058%=      5-min Rain = 0
KCH1 091907Z 02006KT 08/M00 A3037 RMK A01 T00751003  RH  058%=      5-min Rain = 0
KCH1 091908Z 02003KT 08/M00 A3037 RMK A01 T00751002  RH  058%=      5-min Rain = 0
KCH1 091909Z 36005KT 08/00 A3037 RMK A01 T00770002  RH  059%=      5-min Rain = 0
KCH1 091910Z 35006KT 08/M00 A3036 RMK A01 T00781003  RH  057%=      5-min Rain = 0
KCH1 091911Z 31004KT 08/M01 A3036 RMK A01 T00751006  RH  056%=      5-min Rain = 0
KCH1 091912Z 34006G12KT 07/M01 A3036 RMK A01 T00731005  RH  058%=      5-min Rain = 0
KCH1 091913Z 34007KT 08/00 A3036 RMK A01 T00750000  RH  059%=      5-min Rain = 0
KCH1 091914Z 33009KT 08/M00 A3036 RMK A01 T00771001  RH  058%=      5-min Rain = 0
KCH1 091915Z 34007KT 08/M00 A3036 RMK A01 T00761003  RH  057%=      5-min Rain = 0
KCH1 091916Z 34007KT 08/M00 A3036 RMK A01 T00761003  RH  057%=      5-min Rain = 0
KCH1 091917Z 35005KT 07/M01 A3036 RMK A01 T00741005  RH  057%=      5-min Rain = 0
KCH1 091918Z 34005KT 07/M01 A3036 RMK A01 T00731006  RH  057%=      5-min Rain = 0
KCH1 091919Z 33007KT 07/M01 A3036 RMK A01 T00721006  RH  058%=      5-min Rain = 0
KCH1 091920Z 33003KT 07/M00 A3036 RMK A01 T00711004  RH  059%=      5-min Rain = 0
KCH1 091921Z 36002KT 07/M00 A3036 RMK A01 T00711004  RH  059%=      5-min Rain = 0
KCH1 091922Z 00004KT 07/M01 A3036 RMK A01 T00711005  RH  058%=      5-min Rain = 0
KCH1 091923Z 03008KT 07/M00 A3036 RMK A01 T00721003  RH  059%=      5-min Rain = 0
KCH1 091924Z 03007KT 07/M00 A3036 RMK A01 T00741001  RH  059%=      5-min Rain = 0
KCH1 091925Z 03004KT 08/M01 A3036 RMK A01 T00751005  RH  057%=      5-min Rain = 0
KCH1 091926Z 01003KT 07/M00 A3036 RMK A01 T00741004  RH  058%=      5-min Rain = 0
KCH1 091927Z 00006KT 07/M01 A3036 RMK A01 T00741005  RH  057%=      5-min Rain = 0
KCH1 091928Z 02006KT 07/M00 A3036 RMK A01 T00741002  RH  058%=      5-min Rain = 0
KCH1 091929Z 04008KT 08/M00 A3035 RMK A01 T00771001  RH  058%=      5-min Rain = 0
KCH1 091930Z 02006KT 08/M00 A3035 RMK A01 T00791001  RH  057%=      5-min Rain = 0
KCH1 091931Z 00009KT 08/M00 A3035 RMK A01 T00801001  RH  056%=      5-min Rain = 0
KCH1 091932Z 35006KT 08/M01 A3035 RMK A01 T00781005  RH  056%=      5-min Rain = 0
KCH1 091933Z 33007KT 08/M00 A3035 RMK A01 T00761003  RH  057%=      5-min Rain = 0
KCH1 091934Z 33006KT 08/M00 A3035 RMK A01 T00751003  RH  058%=      5-min Rain = 0
KCH1 091935Z 32006KT 08/M00 A3035 RMK A01 T00751003  RH  058%=      5-min Rain = 0
KCH1 091936Z 31006KT 08/M00 A3035 RMK A01 T00751004  RH  057%=      5-min Rain = 0
KCH1 091937Z 31005KT 08/M00 A3035 RMK A01 T00751004  RH  057%=      5-min Rain = 0
KCH1 091938Z 30002KT 08/M00 A3035 RMK A01 T00751003  RH  058%=      5-min Rain = 0
KCH1 091939Z 33002KT 07/M01 A3035 RMK A01 T00741005  RH  057%=      5-min Rain = 0
KCH1 091940Z 02002KT 07/M00 A3035 RMK A01 T00741003  RH  058%=      5-min Rain = 0
KCH1 091941Z 03004KT 08/00 A3035 RMK A01 T00760000  RH  059%=      5-min Rain = 0
KCH1 091942Z 04005KT 08/M00 A3035 RMK A01 T00781003  RH  057%=      5-min Rain = 0
KCH1 091943Z 34005KT 08/M00 A3035 RMK A01 T00781001  RH  057%=      5-min Rain = 0
KCH1 091944Z 34008KT 08/M00 A3035 RMK A01 T00781003  RH  056%=      5-min Rain = 0
KCH1 091945Z 34006KT 08/M00 A3035 RMK A01 T00781002  RH  057%=      5-min Rain = 0
KCH1 091946Z 36004KT 08/M00 A3035 RMK A01 T00781001  RH  057%=      5-min Rain = 0
KCH1 091947Z 01004KT 08/00 A3035 RMK A01 T00810003  RH  058%=      5-min Rain = 0
KCH1 091948Z 35004KT 08/00 A3035 RMK A01 T00830001  RH  056%=      5-min Rain = 0
KCH1 091949Z 00003KT 08/M00 A3035 RMK A01 T00821003  RH  055%=      5-min Rain = 0
KCH1 091950Z 00002KT 08/M01 A3034 RMK A01 T00781007  RH  055%=      5-min Rain = 0
KCH1 091951Z 01003KT 08/M01 A3034 RMK A01 T00771007  RH  055%=      5-min Rain = 0
KCH1 091952Z 00003KT 08/M00 A3034 RMK A01 T00761004  RH  057%=      5-min Rain = 0
KCH1 091953Z 36007KT 08/00 A3034 RMK A01 T00780000  RH  058%=      5-min Rain = 0
KCH1 091954Z 36008KT 08/M00 A3034 RMK A01 T00781003  RH  056%=      5-min Rain = 0
KCH1 091955Z 00005KT 08/M01 A3034 RMK A01 T00761005  RH  056%=      5-min Rain = 0
KCH1 091956Z 02005KT 08/M00 A3034 RMK A01 T00751003  RH  058%=      5-min Rain = 0
KCH1 091957Z 03005KT 08/00 A3034 RMK A01 T00760000  RH  058%=      5-min Rain = 0
KCH1 091958Z 02003KT 08/M00 A3034 RMK A01 T00771001  RH  058%=      5-min Rain = 0
KCH1 091959Z 02003KT 08/M00 A3034 RMK A01 T00781001  RH  057%=      5-min Rain = 0
KCH1 092000Z 33004KT 08/M00 A3034 RMK A01 T00791002  RH  057%=      5-min Rain = 0
KCH1 092001Z 34004KT 08/M00 A3034 RMK A01 T00781003  RH  056%=      5-min Rain = 0
KCH1 092002Z 34004KT 08/00 A3034 RMK A01 T007800-0  RH  058%=      5-min Rain = 0
KCH1 092003Z 01003KT 08/00 A3034 RMK A01 T00810003  RH  058%=      5-min Rain = 0
KCH1 092004Z 36006KT 08/00 A3034 RMK A01 T00830002  RH  057%=      5-min Rain = 0
KCH1 092005Z 36006KT 08/M00 A3034 RMK A01 T00821002  RH  056%=      5-min Rain = 0
KCH1 092006Z 00004KT 08/M01 A3034 RMK A01 T00781005  RH  056%=      5-min Rain = 0
KCH1 092007Z 01002KT 08/M01 A3034 RMK A01 T00761005  RH  056%=      5-min Rain = 0
KCH1 092008Z 34005G11KT 08/M00 A3034 RMK A01 T00761001  RH  058%=      5-min Rain = 0
KCH1 092009Z 34010KT 08/M00 A3034 RMK A01 T00781001  RH  057%=      5-min Rain = 0
KCH1 092010Z 34007KT 08/M00 A3034 RMK A01 T00781001  RH  057%=      5-min Rain = 0
KCH1 092011Z 35007KT 08/00 A3034 RMK A01 T007900-0  RH  057%=      5-min Rain = 0
KCH1 092012Z 36006KT 08/M00 A3034 RMK A01 T00801001  RH  057%=      5-min Rain = 0
KCH1 092013Z 35007KT 08/M00 A3034 RMK A01 T00801002  RH  056%=      5-min Rain = 0
KCH1 092014Z 34003KT 08/M00 A3034 RMK A01 T00791004  RH  056%=      5-min Rain = 0
KCH1 092015Z 36006KT 08/M00 A3034 RMK A01 T00791001  RH  057%=      5-min Rain = 0
KCH1 092016Z 02007KT 08/M00 A3034 RMK A01 T00791002  RH  056%=      5-min Rain = 0
KCH1 092017Z 01007KT 08/00 A3034 RMK A01 T008100-0  RH  057%=      5-min Rain = 0
KCH1 092018Z 02007KT 08/00 A3034 RMK A01 T00820001  RH  057%=      5-min Rain = 0
KCH1 092019Z 02006KT 08/M00 A3034 RMK A01 T00821001  RH  056%=      5-min Rain = 0
KCH1 092020Z 02006KT 08/M00 A3034 RMK A01 T00811002  RH  056%=      5-min Rain = 0
KCH1 092021Z 01008KT 08/M00 A3034 RMK A01 T00801001  RH  056%=      5-min Rain = 0
KCH1 092022Z 01008KT 08/00 A3034 RMK A01 T00810001  RH  057%=      5-min Rain = 0
KCH1 092023Z 00007KT 08/M00 A3034 RMK A01 T00821002  RH  056%=      5-min Rain = 0
KCH1 092024Z 35005KT 08/M00 A3034 RMK A01 T00801004  RH  056%=      5-min Rain = 0
KCH1 092025Z 01004KT 08/M00 A3034 RMK A01 T00781004  RH  056%=      5-min Rain = 0
KCH1 092026Z 00005KT 08/M00 A3034 RMK A01 T00791001  RH  057%=      5-min Rain = 0
KCH1 092027Z 35007KT 08/M00 A3034 RMK A01 T00801001  RH  056%=      5-min Rain = 0
KCH1 092028Z 34005KT 08/00 A3034 RMK A01 T008100-0  RH  056%=      5-min Rain = 0
KCH1 092029Z 34004KT 08/M00 A3034 RMK A01 T00821003  RH  055%=      5-min Rain = 0
KCH1 092030Z 33004KT 08/M00 A3034 RMK A01 T00811003  RH  055%=      5-min Rain = 0
KCH1 092031Z 34002KT 08/M00 A3034 RMK A01 T00811002  RH  056%=      5-min Rain = 0
KCH1 092032Z 33007G12KT 08/00 A3034 RMK A01 T008200-0  RH  056%=      5-min Rain = 0
KCH1 092033Z 34010KT 08/M00 A3034 RMK A01 T00831002  RH  055%=      5-min Rain = 0
KCH1 092034Z 34008KT 08/M00 A3034 RMK A01 T00811003  RH  056%=      5-min Rain = 0
KCH1 092035Z 35006KT 08/M00 A3034 RMK A01 T00811001  RH  056%=      5-min Rain = 0
KCH1 092036Z 01005KT 08/M00 A3034 RMK A01 T00811001  RH  056%=      5-min Rain = 0
KCH1 092037Z 35003KT 08/M00 A3034 RMK A01 T00821001  RH  056%=      5-min Rain = 0
KCH1 092038Z 33001KT 08/00 A3034 RMK A01 T00840001  RH  056%=      5-min Rain = 0
KCH1 092039Z 01004KT 09/00 A3034 RMK A01 T00860000  RH  055%=      5-min Rain = 0
KCH1 092040Z 35004KT 09/M00 A3034 RMK A01 T00861002  RH  054%=      5-min Rain = 0
KCH1 092041Z 00006KT 09/M00 A3034 RMK A01 T00851004  RH  054%=      5-min Rain = 0
KCH1 092042Z 01008KT 08/M00 A3034 RMK A01 T00841003  RH  054%=      5-min Rain = 0
KCH1 092043Z 36006KT 08/M00 A3034 RMK A01 T00831003  RH  055%=      5-min Rain = 0
KCH1 092044Z 35008KT 08/M00 A3034 RMK A01 T00831001  RH  055%=      5-min Rain = 0
KCH1 092045Z 36007KT 08/M00 A3034 RMK A01 T00831004  RH  054%=      5-min Rain = 0
KCH1 092046Z 35003KT 08/M00 A3034 RMK A01 T00821004  RH  055%=      5-min Rain = 0
KCH1 092047Z 32001KT 08/M00 A3034 RMK A01 T00811003  RH  055%=      5-min Rain = 0
KCH1 092048Z 02002KT 08/M00 A3034 RMK A01 T00831003  RH  055%=      5-min Rain = 0
KCH1 092049Z 03003KT 08/M00 A3034 RMK A01 T00841002  RH  055%=      5-min Rain = 0
KCH1 092050Z 02004KT 08/M00 A3034 RMK A01 T00841003  RH  054%=      5-min Rain = 0
KCH1 092051Z 35008KT 08/00 A3034 RMK A01 T008400-0  RH  055%=      5-min Rain = 0
KCH1 092052Z 35007KT 09/M00 A3034 RMK A01 T00851002  RH  054%=      5-min Rain = 0
KCH1 092053Z 36005KT 08/M00 A3034 RMK A01 T00841004  RH  054%=      5-min Rain = 0
KCH1 092054Z 34006KT 08/M00 A3034 RMK A01 T00841003  RH  054%=      5-min Rain = 0
KCH1 092055Z 33008KT 08/M00 A3034 RMK A01 T00841004  RH  054%=      5-min Rain = 0
KCH1 092056Z 34007KT 08/M01 A3034 RMK A01 T00841005  RH  054%=      5-min Rain = 0
KCH1 092057Z 33005KT 08/M01 A3034 RMK A01 T00821005  RH  054%=      5-min Rain = 0
KCH1 092058Z 35006KT 08/M01 A3034 RMK A01 T00821005  RH  054%=      5-min Rain = 0
KCH1 092059Z 36006KT 08/M00 A3034 RMK A01 T00821004  RH  055%=      5-min Rain = 0
KCH1 092100Z 00005KT 08/M00 A3034 RMK A01 T00821004  RH  055%=      5-min Rain = 0
KCH1 092101Z 03003KT 08/M00 A3033 RMK A01 T00821004  RH  055%=      5-min Rain = 0
KCH1 092102Z 03004KT 08/M00 A3033 RMK A01 T00831002  RH  055%=      5-min Rain = 0
KCH1 092103Z 02006KT 09/00 A3033 RMK A01 T00860000  RH  055%=      5-min Rain = 0
KCH1 092104Z 01005KT 09/M00 A3033 RMK A01 T00871001  RH  054%=      5-min Rain = 0
KCH1 092105Z 35005KT 09/M00 A3033 RMK A01 T00881001  RH  054%=      5-min Rain = 0
KCH1 092106Z 33005KT 09/00 A3033 RMK A01 T008900-0  RH  054%=      5-min Rain = 0
KCH1 092107Z 35007KT 09/M00 A3033 RMK A01 T00881004  RH  052%=      5-min Rain = 0
KCH1 092108Z 35006KT 09/M01 A3033 RMK A01 T00861005  RH  053%=      5-min Rain = 0
KCH1 092109Z 00005KT 09/M00 A3033 RMK A01 T00851004  RH  053%=      5-min Rain = 0
KCH1 092110Z 00004KT 09/M01 A3033 RMK A01 T00851006  RH  053%=      5-min Rain = 0
KCH1 092111Z 00004KT 08/M01 A3033 RMK A01 T00831008  RH  053%=      5-min Rain = 0
KCH1 092112Z 36003KT 08/M01 A3033 RMK A01 T00821007  RH  053%=      5-min Rain = 0
KCH1 092113Z 02002KT 08/M00 A3033 RMK A01 T00831002  RH  055%=      5-min Rain = 0
KCH1 092114Z 36002KT 09/M00 A3033 RMK A01 T00851002  RH  054%=      5-min Rain = 0
KCH1 092115Z 35003KT 09/M01 A3033 RMK A01 T00851006  RH  052%=      5-min Rain = 0
KCH1 092116Z 01005KT 08/M01 A3033 RMK A01 T00841008  RH  052%=      5-min Rain = 0
KCH1 092117Z 01006KT 08/M01 A3033 RMK A01 T00841007  RH  053%=      5-min Rain = 0
KCH1 092118Z 01006KT 08/M01 A3033 RMK A01 T00831007  RH  053%=      5-min Rain = 0
KCH1 092119Z 02005KT 08/M01 A3033 RMK A01 T00841007  RH  053%=      5-min Rain = 0
KCH1 092120Z 01005KT 08/M00 A3033 RMK A01 T00841004  RH  054%=      5-min Rain = 0
KCH1 092121Z 35007KT 09/M00 A3033 RMK A01 T00861004  RH  053%=      5-min Rain = 0
KCH1 092122Z 33004KT 09/M01 A3033 RMK A01 T00861007  RH  052%=      5-min Rain = 0
KCH1 092123Z 35004KT 08/M01 A3033 RMK A01 T00841007  RH  053%=      5-min Rain = 0
KCH1 092124Z 33007KT 08/M01 A3033 RMK A01 T00841006  RH  053%=      5-min Rain = 0
KCH1 092125Z 35007KT 08/M01 A3033 RMK A01 T00841007  RH  053%=      5-min Rain = 0
KCH1 092126Z 00006KT 08/M01 A3033 RMK A01 T00841006  RH  053%=      5-min Rain = 0
KCH1 092127Z 35006KT 08/M01 A3033 RMK A01 T00831008  RH  053%=      5-min Rain = 0
KCH1 092128Z 35004KT 08/M01 A3033 RMK A01 T00821007  RH  053%=      5-min Rain = 0
KCH1 092129Z 01006KT 08/M00 A3033 RMK A01 T00841001  RH  055%=      5-min Rain = 0
KCH1 092130Z 01006KT 09/M00 A3033 RMK A01 T00871003  RH  053%=      5-min Rain = 0
KCH1 092131Z 03004KT 09/M01 A3033 RMK A01 T00861007  RH  052%=      5-min Rain = 0
KCH1 092132Z 36003KT 08/M01 A3033 RMK A01 T00841008  RH  052%=      5-min Rain = 0
KCH1 092133Z 02005KT 08/M01 A3033 RMK A01 T00831007  RH  053%=      5-min Rain = 0
KCH1 092134Z 02007KT 08/M00 A3033 RMK A01 T00841004  RH  054%=      5-min Rain = 0
KCH1 092135Z 03006KT 09/M01 A3033 RMK A01 T00851005  RH  053%=      5-min Rain = 0
KCH1 092136Z 02006KT 09/M01 A3033 RMK A01 T00851006  RH  053%=      5-min Rain = 0
KCH1 092137Z 01004KT 09/M01 A3033 RMK A01 T00851007  RH  052%=      5-min Rain = 0
KCH1 092138Z 34005KT 09/M00 A3033 RMK A01 T00861004  RH  053%=      5-min Rain = 0
KCH1 092139Z 35006KT 09/M01 A3033 RMK A01 T00871006  RH  052%=      5-min Rain = 0
KCH1 092140Z 36005KT 09/M01 A3033 RMK A01 T00861007  RH  052%=      5-min Rain = 0
KCH1 092141Z 01005KT 09/M01 A3033 RMK A01 T00861005  RH  053%=      5-min Rain = 0
KCH1 092142Z 00005KT 09/M01 A3033 RMK A01 T00861007  RH  052%=      5-min Rain = 0
KCH1 092143Z 01006KT 09/M00 A3033 RMK A01 T00851004  RH  053%=      5-min Rain = 0
KCH1 092144Z 01005KT 09/M01 A3033 RMK A01 T00871005  RH  053%=      5-min Rain = 0
KCH1 092145Z 00004KT 09/M01 A3033 RMK A01 T00861007  RH  052%=      5-min Rain = 0
KCH1 092146Z 02004KT 09/M01 A3033 RMK A01 T00861005  RH  053%=      5-min Rain = 0
KCH1 092147Z 03006KT 09/M01 A3033 RMK A01 T00861005  RH  053%=      5-min Rain = 0
KCH1 092148Z 03005KT 09/M01 A3033 RMK A01 T00861007  RH  052%=      5-min Rain = 0
KCH1 092149Z 02004KT 09/M01 A3033 RMK A01 T00861005  RH  053%=      5-min Rain = 0
KCH1 092150Z 35006KT 09/M00 A3033 RMK A01 T00871003  RH  053%=      5-min Rain = 0
KCH1 092151Z 00007KT 09/M01 A3033 RMK A01 T00871005  RH  053%=      5-min Rain = 0
KCH1 092152Z 00007KT 09/M01 A3033 RMK A01 T00871005  RH  052%=      5-min Rain = 0
KCH1 092153Z 36008KT 09/M01 A3033 RMK A01 T00861007  RH  052%=      5-min Rain = 0
KCH1 092154Z 01006KT 08/M01 A3033 RMK A01 T00841009  RH  052%=      5-min Rain = 0
KCH1 092155Z 00006KT 08/M01 A3033 RMK A01 T00831008  RH  053%=      5-min Rain = 0
KCH1 092156Z 02004KT 08/M01 A3033 RMK A01 T00831011  RH  052%=      5-min Rain = 0
KCH1 092157Z 01004KT 08/M01 A3033 RMK A01 T00831008  RH  053%=      5-min Rain = 0
KCH1 092158Z 01005KT 08/M01 A3033 RMK A01 T00841009  RH  052%=      5-min Rain = 0
KCH1 092159Z 00005KT 09/M01 A3033 RMK A01 T00851009  RH  052%=      5-min Rain = 0
KCH1 092200Z 35006KT 09/M01 A3033 RMK A01 T00851008  RH  052%=      5-min Rain = 0
KCH1 092201Z 01005KT 09/M01 A3033 RMK A01 T00851009  RH  052%=      5-min Rain = 0
KCH1 092202Z 01006KT 09/M01 A3033 RMK A01 T00851009  RH  052%=      5-min Rain = 0
KCH1 092203Z 00005KT 09/M01 A3033 RMK A01 T00851009  RH  052%=      5-min Rain = 0
KCH1 092204Z 35005KT 09/M01 A3033 RMK A01 T00851009  RH  052%=      5-min Rain = 0
KCH1 092205Z 01005KT 09/M01 A3033 RMK A01 T00851009  RH  052%=      5-min Rain = 0
KCH1 092206Z 01006KT 09/M01 A3033 RMK A01 T00851009  RH  052%=      5-min Rain = 0
KCH1 092207Z 01006KT 09/M01 A3033 RMK A01 T00851008  RH  052%=      5-min Rain = 0
KCH1 092208Z 02006KT 09/M01 A3033 RMK A01 T00851009  RH  052%=      5-min Rain = 0
KCH1 092209Z 01006KT 09/M01 A3033 RMK A01 T00851008  RH  052%=      5-min Rain = 0
KCH1 092210Z 01007KT 09/M01 A3033 RMK A01 T00851008  RH  052%=      5-min Rain = 0
KCH1 092211Z 00006KT 09/M01 A3033 RMK A01 T00851009  RH  052%=      5-min Rain = 0
KCH1 092212Z 34006KT 09/M01 A3033 RMK A01 T00851008  RH  052%=      5-min Rain = 0
KCH1 092213Z 34006KT 08/M01 A3033 RMK A01 T00841008  RH  052%=      5-min Rain = 0
KCH1 092214Z 35006KT 09/M01 A3033 RMK A01 T00851008  RH  052%=      5-min Rain = 0
KCH1 092215Z 33005KT 08/M01 A3033 RMK A01 T00841008  RH  052%=      5-min Rain = 0
KCH1 092216Z 01005KT 08/M01 A3033 RMK A01 T00841008  RH  052%=      5-min Rain = 0
KCH1 092217Z 01006KT 08/M01 A3033 RMK A01 T00841008  RH  052%=      5-min Rain = 0
KCH1 092218Z 02004KT 08/M01 A3033 RMK A01 T00841009  RH  052%=      5-min Rain = 0
KCH1 092219Z 00003KT 08/M01 A3033 RMK A01 T00841009  RH  052%=      5-min Rain = 0
KCH1 092220Z 36003KT 08/M01 A3033 RMK A01 T00831010  RH  052%=      5-min Rain = 0
KCH1 092221Z 01002KT 08/M01 A3033 RMK A01 T00831010  RH  052%=      5-min Rain = 0
KCH1 092222Z 01003KT 08/M01 A3033 RMK A01 T00841008  RH  052%=      5-min Rain = 0
KCH1 092223Z 01004KT 09/M01 A3033 RMK A01 T00851008  RH  052%=      5-min Rain = 0
KCH1 092224Z 35004KT 09/M01 A3033 RMK A01 T00851008  RH  052%=      5-min Rain = 0
KCH1 092225Z 34003KT 09/M01 A3033 RMK A01 T00861007  RH  052%=      5-min Rain = 0
KCH1 092226Z 01003KT 09/M01 A3033 RMK A01 T00861007  RH  052%=      5-min Rain = 0
KCH1 092227Z 00003KT 09/M01 A3033 RMK A01 T00861006  RH  052%=      5-min Rain = 0
KCH1 092228Z 34002KT 09/M01 A3033 RMK A01 T00861010  RH  051%=      5-min Rain = 0
KCH1 092229Z 34003KT 09/M01 A3033 RMK A01 T00861009  RH  051%=      5-min Rain = 0
KCH1 092230Z 34004KT 09/M01 A3033 RMK A01 T00861007  RH  052%=      5-min Rain = 0
KCH1 092231Z 35004KT 09/M01 A3033 RMK A01 T00861008  RH  052%=      5-min Rain = 0
KCH1 092232Z 35005KT 09/M01 A3033 RMK A01 T00861008  RH  052%=      5-min Rain = 0
KCH1 092233Z 00005KT 09/M01 A3033 RMK A01 T00851009  RH  052%=      5-min Rain = 0
KCH1 092234Z 34006KT 08/M01 A3034 RMK A01 T00841008  RH  052%=      5-min Rain = 0
KCH1 092235Z 35006KT 08/M01 A3034 RMK A01 T00841008  RH  052%=      5-min Rain = 0
KCH1 092236Z 36008KT 08/M01 A3034 RMK A01 T00831010  RH  052%=      5-min Rain = 0
KCH1 092237Z 00006KT 08/M01 A3034 RMK A01 T00811011  RH  052%=      5-min Rain = 0
KCH1 092238Z 36005KT 08/M01 A3034 RMK A01 T00811010  RH  053%=      5-min Rain = 0
KCH1 092239Z 35005KT 08/M01 A3034 RMK A01 T00811010  RH  053%=      5-min Rain = 0
KCH1 092240Z 35006KT 08/M01 A3034 RMK A01 T00811010  RH  053%=      5-min Rain = 0
KCH1 092241Z 01006KT 08/M01 A3034 RMK A01 T00811009  RH  053%=      5-min Rain = 0
KCH1 092242Z 36007KT 08/M01 A3034 RMK A01 T00801009  RH  053%=      5-min Rain = 0
KCH1 092243Z 36006KT 08/M01 A3034 RMK A01 T00801010  RH  053%=      5-min Rain = 0
KCH1 092244Z 00005KT 08/M01 A3034 RMK A01 T00801009  RH  053%=      5-min Rain = 0
KCH1 092245Z 36005KT 08/M01 A3034 RMK A01 T00801009  RH  053%=      5-min Rain = 0
KCH1 092246Z 35006KT 08/M01 A3034 RMK A01 T00801009  RH  053%=      5-min Rain = 0
KCH1 092247Z 35006KT 08/M01 A3034 RMK A01 T00801010  RH  053%=      5-min Rain = 0
KCH1 092248Z 34006KT 08/M01 A3034 RMK A01 T00791010  RH  053%=      5-min Rain = 0
KCH1 092249Z 35005KT 08/M01 A3034 RMK A01 T00801009  RH  053%=      5-min Rain = 0
KCH1 092250Z 00006KT 08/M01 A3034 RMK A01 T00791008  RH  054%=      5-min Rain = 0
KCH1 092251Z 36007KT 08/M01 A3034 RMK A01 T00791009  RH  054%=      5-min Rain = 0
KCH1 092252Z 01005KT 08/M01 A3034 RMK A01 T00791009  RH  054%=      5-min Rain = 0
KCH1 092253Z 01005KT 08/M01 A3034 RMK A01 T00781008  RH  054%=      5-min Rain = 0
KCH1 092254Z 01004KT 08/M01 A3034 RMK A01 T00781009  RH  054%=      5-min Rain = 0
KCH1 092255Z 01005KT 08/M01 A3034 RMK A01 T00781008  RH  054%=      5-min Rain = 0
KCH1 092256Z 01006KT 08/M01 A3034 RMK A01 T00781009  RH  054%=      5-min Rain = 0
KCH1 092257Z 01006KT 08/M01 A3034 RMK A01 T00771009  RH  054%=      5-min Rain = 0
KCH1 092258Z 01006KT 08/M01 A3034 RMK A01 T00771009  RH  054%=      5-min Rain = 0
KCH1 092259Z 01005KT 08/M01 A3034 RMK A01 T00771009  RH  054%=      5-min Rain = 0
KCH1 092300Z 00004KT 08/M01 A3034 RMK A01 T00761009  RH  055%=      5-min Rain = 0
KCH1 092301Z 00005KT 08/M01 A3034 RMK A01 T00761007  RH  055%=      5-min Rain = 0
KCH1 092302Z 00006KT 08/M01 A3034 RMK A01 T00761008  RH  055%=      5-min Rain = 0
KCH1 092303Z 36006KT 08/M01 A3034 RMK A01 T00761008  RH  055%=      5-min Rain = 0
KCH1 092304Z 36005KT 08/M01 A3034 RMK A01 T00761008  RH  055%=      5-min Rain = 0
KCH1 092305Z 36005KT 08/M01 A3034 RMK A01 T00751008  RH  055%=      5-min Rain = 0
KCH1 092306Z 35005KT 08/M01 A3034 RMK A01 T00751008  RH  055%=      5-min Rain = 0
KCH1 092307Z 00004KT 08/M01 A3034 RMK A01 T00751008  RH  056%=      5-min Rain = 0
KCH1 092308Z 35005KT 08/M01 A3034 RMK A01 T00751008  RH  056%=      5-min Rain = 0
KCH1 092309Z 00004KT 07/M01 A3034 RMK A01 T00741007  RH  056%=      5-min Rain = 0
KCH1 092310Z 36005KT 07/M01 A3034 RMK A01 T00741007  RH  057%=      5-min Rain = 0
KCH1 092311Z 36005KT 07/M01 A3034 RMK A01 T00731007  RH  057%=      5-min Rain = 0
KCH1 092312Z 36005KT 07/M01 A3034 RMK A01 T00731007  RH  057%=      5-min Rain = 0
KCH1 092313Z 36006KT 07/M01 A3034 RMK A01 T00721007  RH  057%=      5-min Rain = 0
KCH1 092314Z 36006KT 07/M01 A3034 RMK A01 T00721008  RH  057%=      5-min Rain = 0
KCH1 092315Z 36005KT 07/M01 A3034 RMK A01 T00711008  RH  057%=      5-min Rain = 0
KCH1 092316Z 36006KT 07/M01 A3034 RMK A01 T00711007  RH  058%=      5-min Rain = 0
KCH1 092317Z 00005KT 07/M01 A3034 RMK A01 T00701008  RH  057%=      5-min Rain = 0
KCH1 092318Z 00005KT 07/M01 A3034 RMK A01 T00701007  RH  058%=      5-min Rain = 0
KCH1 092319Z 01006KT 07/M01 A3034 RMK A01 T00691007  RH  058%=      5-min Rain = 0
KCH1 092320Z 00005KT 07/M01 A3034 RMK A01 T00691007  RH  058%=      5-min Rain = 0
KCH1 092321Z 00005KT 07/M01 A3034 RMK A01 T00681008  RH  059%=      5-min Rain = 0
KCH1 092322Z 00005KT 07/M01 A3034 RMK A01 T00671007  RH  059%=      5-min Rain = 0
KCH1 092323Z 00006KT 07/M01 A3034 RMK A01 T00661008  RH  059%=      5-min Rain = 0
KCH1 092324Z 36006KT 07/M01 A3034 RMK A01 T00661007  RH  060%=      5-min Rain = 0
KCH1 092325Z 36005KT 07/M01 A3034 RMK A01 T00651007  RH  060%=      5-min Rain = 0
KCH1 092326Z 00005KT 06/M01 A3034 RMK A01 T00641007  RH  060%=      5-min Rain = 0
KCH1 092327Z 36005KT 06/M01 A3034 RMK A01 T00641007  RH  060%=      5-min Rain = 0
KCH1 092328Z 36005KT 06/M01 A3034 RMK A01 T00631007  RH  061%=      5-min Rain = 0
KCH1 092329Z 00005KT 06/M01 A3034 RMK A01 T00621008  RH  061%=      5-min Rain = 0
KCH1 092330Z 00005KT 06/M01 A3034 RMK A01 T00621007  RH  061%=      5-min Rain = 0
KCH1 092331Z 00005KT 06/M01 A3034 RMK A01 T00621007  RH  061%=      5-min Rain = 0
KCH1 092332Z 36005KT 06/M01 A3034 RMK A01 T00611007  RH  062%=      5-min Rain = 0
KCH1 092333Z 36006KT 06/M01 A3034 RMK A01 T00601008  RH  062%=      5-min Rain = 0
KCH1 092334Z 36005KT 06/M01 A3034 RMK A01 T00591008  RH  062%=      5-min Rain = 0
KCH1 092335Z 36005KT 06/M01 A3034 RMK A01 T00591009  RH  062%=      5-min Rain = 0
KCH1 092336Z 36005KT 06/M01 A3034 RMK A01 T00581008  RH  062%=      5-min Rain = 0
KCH1 092337Z 00005KT 06/M01 A3034 RMK A01 T00581008  RH  062%=      5-min Rain = 0
KCH1 092338Z 36005KT 06/M01 A3034 RMK A01 T00571008  RH  063%=      5-min Rain = 0
KCH1 092339Z 36005KT 06/M01 A3034 RMK A01 T00561009  RH  063%=      5-min Rain = 0
KCH1 092340Z 00005KT 06/M01 A3034 RMK A01 T00561008  RH  063%=      5-min Rain = 0
KCH1 092341Z 00005KT 06/M01 A3034 RMK A01 T00551009  RH  063%=      5-min Rain = 0
KCH1 092342Z 00005KT 06/M01 A3034 RMK A01 T00551008  RH  064%=      5-min Rain = 0
KCH1 092343Z 00005KT 06/M01 A3034 RMK A01 T00551008  RH  064%=      5-min Rain = 0
KCH1 092344Z 01005KT 06/M01 A3034 RMK A01 T00551008  RH  064%=      5-min Rain = 0
KCH1 092345Z 01005KT 05/M01 A3034 RMK A01 T00541008  RH  064%=      5-min Rain = 0
KCH1 092346Z 01005KT 05/M01 A3034 RMK A01 T00541008  RH  064%=      5-min Rain = 0
KCH1 092347Z 01005KT 05/M01 A3034 RMK A01 T00531008  RH  065%=      5-min Rain = 0
KCH1 092348Z 01005KT 05/M01 A3034 RMK A01 T00531008  RH  065%=      5-min Rain = 0
KCH1 092349Z 01005KT 05/M01 A3035 RMK A01 T00521008  RH  065%=      5-min Rain = 0
KCH1 092350Z 01005KT 05/M01 A3035 RMK A01 T00521008  RH  065%=      5-min Rain = 0
KCH1 092351Z 01005KT 05/M01 A3035 RMK A01 T00511008  RH  066%=      5-min Rain = 0
KCH1 092352Z 01004KT 05/M01 A3035 RMK A01 T00511007  RH  066%=      5-min Rain = 0
KCH1 092353Z 01004KT 05/M01 A3035 RMK A01 T00501007  RH  066%=      5-min Rain = 0
KCH1 092354Z 01004KT 05/M01 A3035 RMK A01 T00491007  RH  067%=      5-min Rain = 0
KCH1 092355Z 02004KT 05/M01 A3035 RMK A01 T00491007  RH  067%=      5-min Rain = 0
KCH1 092356Z 02004KT 05/M01 A3035 RMK A01 T00481007  RH  067%=      5-min Rain = 0
KCH1 092357Z 01004KT 05/M01 A3035 RMK A01 T00481007  RH  068%=      5-min Rain = 0
KCH1 092358Z 01004KT 05/M01 A3035 RMK A01 T00471007  RH  068%=      5-min Rain = 0
KCH1 092359Z 01005KT 05/M01 A3035 RMK A01 T00471007  RH  068%=      5-min Rain = 0
KCH1 100000Z 01005KT 05/M01 A3035 RMK A01 T00471007  RH  068%=      5-min Rain = 0
KCH1 100001Z 01005KT 05/M01 A3035 RMK A01 T00461007  RH  068%=      5-min Rain = 0
KCH1 100002Z 01005KT 05/M01 A3035 RMK A01 T00461007  RH  068%=      5-min Rain = 0
KCH1 100003Z 01005KT 05/M01 A3035 RMK A01 T00451007  RH  069%=      5-min Rain = 0
KCH1 100004Z 01005KT 05/M01 A3035 RMK A01 T00451007  RH  069%=      5-min Rain = 0
KCH1 100005Z 01005KT 05/M01 A3035 RMK A01 T00451007  RH  069%=      5-min Rain = 0
KCH1 100006Z 01005KT 05/M01 A3035 RMK A01 T00451007  RH  069%=      5-min Rain = 0
KCH1 100007Z 01005KT 04/M01 A3035 RMK A01 T00441007  RH  069%=      5-min Rain = 0
KCH1 100008Z 01005KT 04/M01 A3035 RMK A01 T00441007  RH  069%=      5-min Rain = 0
KCH1 100009Z 01005KT 04/M01 A3035 RMK A01 T00431007  RH  070%=      5-min Rain = 0
KCH1 100010Z 01005KT 04/M01 A3035 RMK A01 T00431007  RH  070%=      5-min Rain = 0
KCH1 100011Z 02004KT 04/M01 A3035 RMK A01 T00431007  RH  070%=      5-min Rain = 0
KCH1 100012Z 02005KT 04/M01 A3035 RMK A01 T00421007  RH  070%=      5-min Rain = 0
KCH1 100013Z 02005KT 04/M01 A3036 RMK A01 T00421007  RH  070%=      5-min Rain = 0
KCH1 100014Z 02005KT 04/M01 A3036 RMK A01 T00421007  RH  070%=      5-min Rain = 0
KCH1 100015Z 02004KT 04/M01 A3036 RMK A01 T00421007  RH  070%=      5-min Rain = 0
KCH1 100016Z 02004KT 04/M01 A3036 RMK A01 T00411007  RH  071%=      5-min Rain = 0
KCH1 100017Z 02004KT 04/M01 A3036 RMK A01 T00411007  RH  071%=      5-min Rain = 0
KCH1 100018Z 02004KT 04/M01 A3036 RMK A01 T00411007  RH  071%=      5-min Rain = 0
KCH1 100019Z 02004KT 04/M01 A3036 RMK A01 T00401008  RH  071%=      5-min Rain = 0
KCH1 100020Z 02004KT 04/M01 A3036 RMK A01 T00411007  RH  071%=      5-min Rain = 0
KCH1 100021Z 02005KT 04/M01 A3036 RMK A01 T00401008  RH  071%=      5-min Rain = 0
KCH1 100022Z 02005KT 04/M01 A3036 RMK A01 T00401008  RH  071%=      5-min Rain = 0
KCH1 100023Z 02005KT 04/M01 A3036 RMK A01 T00391008  RH  071%=      5-min Rain = 0
KCH1 100024Z 02005KT 04/M01 A3036 RMK A01 T00391008  RH  071%=      5-min Rain = 0
KCH1 100025Z 01005KT 04/M01 A3036 RMK A01 T00391008  RH  071%=      5-min Rain = 0
KCH1 100026Z 02005KT 04/M01 A3036 RMK A01 T00381009  RH  071%=      5-min Rain = 0
KCH1 100027Z 01005KT 04/M01 A3036 RMK A01 T00381009  RH  072%=      5-min Rain = 0
KCH1 100028Z 01006KT 04/M01 A3036 RMK A01 T00371009  RH  072%=      5-min Rain = 0
KCH1 100029Z 01006KT 04/M01 A3036 RMK A01 T00371010  RH  072%=      5-min Rain = 0
KCH1 100030Z 01006KT 04/M01 A3036 RMK A01 T00361010  RH  072%=      5-min Rain = 0
KCH1 100031Z 01006KT 04/M01 A3036 RMK A01 T00361010  RH  072%=      5-min Rain = 0
KCH1 100032Z 01006KT 04/M01 A3036 RMK A01 T00351010  RH  072%=      5-min Rain = 0
KCH1 100033Z 01006KT 04/M01 A3036 RMK A01 T00351010  RH  072%=      5-min Rain = 0
KCH1 100034Z 01006KT 04/M01 A3036 RMK A01 T00351011  RH  072%=      5-min Rain = 0
KCH1 100035Z 01006KT 04/M01 A3036 RMK A01 T00351011  RH  072%=      5-min Rain = 0
KCH1 100036Z 01005KT 04/M01 A3036 RMK A01 T00351011  RH  072%=      5-min Rain = 0
KCH1 100037Z 01006KT 04/M01 A3036 RMK A01 T00351011  RH  072%=      5-min Rain = 0
KCH1 100038Z 01006KT 04/M01 A3036 RMK A01 T00351011  RH  072%=      5-min Rain = 0
KCH1 100039Z 01006KT 04/M01 A3036 RMK A01 T00351011  RH  072%=      5-min Rain = 0
KCH1 100040Z 01006KT 04/M01 A3037 RMK A01 T00351011  RH  072%=      5-min Rain = 0
KCH1 100041Z 01006KT 04/M01 A3037 RMK A01 T00351011  RH  072%=      5-min Rain = 0
KCH1 100042Z 01006KT 04/M01 A3037 RMK A01 T00351011  RH  072%=      5-min Rain = 0
KCH1 100043Z 01005KT 03/M01 A3037 RMK A01 T00341011  RH  072%=      5-min Rain = 0
KCH1 100044Z 01006KT 03/M01 A3037 RMK A01 T00331011  RH  073%=      5-min Rain = 0
KCH1 100045Z 01006KT 03/M01 A3037 RMK A01 T00331011  RH  073%=      5-min Rain = 0
KCH1 100046Z 01006KT 03/M01 A3037 RMK A01 T00321011  RH  073%=      5-min Rain = 0
KCH1 100047Z 01006KT 03/M01 A3037 RMK A01 T00321011  RH  073%=      5-min Rain = 0
KCH1 100048Z 01006KT 03/M01 A3037 RMK A01 T00311011  RH  074%=      5-min Rain = 0
KCH1 100049Z 01006KT 03/M01 A3037 RMK A01 T00311011  RH  074%=      5-min Rain = 0
KCH1 100050Z 01006KT 03/M01 A3037 RMK A01 T00301012  RH  074%=      5-min Rain = 0
KCH1 100051Z 01006KT 03/M01 A3037 RMK A01 T00301012  RH  074%=      5-min Rain = 0
KCH1 100052Z 01006KT 03/M01 A3037 RMK A01 T00301012  RH  074%=      5-min Rain = 0
KCH1 100053Z 01006KT 03/M01 A3037 RMK A01 T00301012  RH  074%=      5-min Rain = 0
KCH1 100054Z 01006KT 03/M01 A3037 RMK A01 T00301012  RH  074%=      5-min Rain = 0
KCH1 100055Z 01006KT 03/M01 A3037 RMK A01 T00291013  RH  074%=      5-min Rain = 0
KCH1 100056Z 01007KT 03/M01 A3037 RMK A01 T00291013  RH  074%=      5-min Rain = 0
KCH1 100057Z 01007KT 03/M01 A3037 RMK A01 T00291014  RH  073%=      5-min Rain = 0
KCH1 100058Z 01007KT 03/M01 A3037 RMK A01 T00291014  RH  073%=      5-min Rain = 0
KCH1 100059Z 01007KT 03/M02 A3037 RMK A01 T00291015  RH  073%=      5-min Rain = 0
KCH1 100100Z 01007KT 03/M02 A3037 RMK A01 T00291015  RH  073%=      5-min Rain = 0
KCH1 100101Z 01007KT 03/M02 A3037 RMK A01 T00291016  RH  072%=      5-min Rain = 0
KCH1 100102Z 01007KT 03/M02 A3037 RMK A01 T00291017  RH  072%=      5-min Rain = 0
KCH1 100103Z 00007KT 03/M02 A3037 RMK A01 T00291017  RH  072%=      5-min Rain = 0
KCH1 100104Z 00007KT 03/M02 A3037 RMK A01 T00291017  RH  072%=      5-min Rain = 0
KCH1 100105Z 01007KT 03/M02 A3037 RMK A01 T00291018  RH  071%=      5-min Rain = 0
KCH1 100106Z 00007KT 03/M02 A3037 RMK A01 T00291018  RH  071%=      5-min Rain = 0
KCH1 100107Z 01007KT 03/M02 A3037 RMK A01 T00291018  RH  071%=      5-min Rain = 0
KCH1 100108Z 01007KT 03/M02 A3037 RMK A01 T00281019  RH  071%=      5-min Rain = 0
KCH1 100109Z 01007KT 03/M02 A3037 RMK A01 T00291019  RH  071%=      5-min Rain = 0
KCH1 100110Z 01007KT 03/M02 A3037 RMK A01 T00281020  RH  071%=      5-min Rain = 0
KCH1 100111Z 01007KT 03/M02 A3037 RMK A01 T00281020  RH  071%=      5-min Rain = 0
KCH1 100112Z 01007KT 03/M02 A3037 RMK A01 T00281020  RH  071%=      5-min Rain = 0
KCH1 100113Z 01007KT 03/M02 A3037 RMK A01 T00281020  RH  071%=      5-min Rain = 0
KCH1 100114Z 01006KT 03/M02 A3037 RMK A01 T00271020  RH  071%=      5-min Rain = 0
KCH1 100115Z 00006KT 03/M02 A3037 RMK A01 T00271020  RH  071%=      5-min Rain = 0
KCH1 100116Z 00006KT 03/M02 A3037 RMK A01 T00271020  RH  071%=      5-min Rain = 0
KCH1 100117Z 00006KT 03/M02 A3037 RMK A01 T00261021  RH  071%=      5-min Rain = 0
KCH1 100118Z 00005KT 03/M02 A3037 RMK A01 T00261021  RH  071%=      5-min Rain = 0
KCH1 100119Z 00005KT 03/M02 A3037 RMK A01 T00251021  RH  072%=      5-min Rain = 0
KCH1 100120Z 00005KT 03/M02 A3037 RMK A01 T00251021  RH  072%=      5-min Rain = 0
KCH1 100121Z 00005KT 03/M02 A3037 RMK A01 T00251021  RH  072%=      5-min Rain = 0
KCH1 100122Z 00005KT 02/M02 A3037 RMK A01 T00241021  RH  072%=      5-min Rain = 0
KCH1 100123Z 00005KT 02/M02 A3037 RMK A01 T00241021  RH  073%=      5-min Rain = 0
KCH1 100124Z 00005KT 02/M02 A3037 RMK A01 T00231020  RH  073%=      5-min Rain = 0
KCH1 100125Z 00005KT 02/M02 A3037 RMK A01 T00231019  RH  074%=      5-min Rain = 0
KCH1 100126Z 01005KT 02/M02 A3037 RMK A01 T00231019  RH  074%=      5-min Rain = 0
KCH1 100127Z 01005KT 02/M02 A3037 RMK A01 T00221019  RH  074%=      5-min Rain = 0
KCH1 100128Z 01006KT 02/M02 A3037 RMK A01 T00211019  RH  075%=      5-min Rain = 0
KCH1 100129Z 00006KT 02/M02 A3037 RMK A01 T00201019  RH  075%=      5-min Rain = 0
KCH1 100130Z 01006KT 02/M02 A3037 RMK A01 T00201019  RH  075%=      5-min Rain = 0
KCH1 100131Z 00006KT 02/M02 A3037 RMK A01 T00181020  RH  076%=      5-min Rain = 0
KCH1 100132Z 01006KT 02/M02 A3037 RMK A01 T00171020  RH  076%=      5-min Rain = 0
KCH1 100133Z 01006KT 02/M02 A3037 RMK A01 T00171020  RH  077%=      5-min Rain = 0
KCH1 100134Z 01006KT 02/M02 A3037 RMK A01 T00161020  RH  077%=      5-min Rain = 0
KCH1 100135Z 01006KT 02/M02 A3037 RMK A01 T00151020  RH  077%=      5-min Rain = 0
KCH1 100136Z 01006KT 02/M02 A3037 RMK A01 T00151020  RH  078%=      5-min Rain = 0
KCH1 100137Z 01006KT 01/M02 A3037 RMK A01 T00141019  RH  078%=      5-min Rain = 0
KCH1 100138Z 01006KT 01/M02 A3037 RMK A01 T00131019  RH  079%=      5-min Rain = 0
KCH1 100139Z 01005KT 01/M02 A3037 RMK A01 T00131019  RH  079%=      5-min Rain = 0
KCH1 100140Z 00005KT 01/M02 A3037 RMK A01 T00121019  RH  080%=      5-min Rain = 0
KCH1 100141Z 00005KT 01/M02 A3038 RMK A01 T00121019  RH  080%=      5-min Rain = 0
KCH1 100142Z 00005KT 01/M02 A3038 RMK A01 T00121019  RH  080%=      5-min Rain = 0
KCH1 100143Z 36005KT 01/M02 A3038 RMK A01 T00111019  RH  080%=      5-min Rain = 0
KCH1 100144Z 35005KT 01/M02 A3038 RMK A01 T00111019  RH  080%=      5-min Rain = 0
KCH1 100145Z 35004KT 01/M02 A3038 RMK A01 T00111020  RH  080%=      5-min Rain = 0
KCH1 100146Z 35004KT 01/M02 A3038 RMK A01 T00101020  RH  080%=      5-min Rain = 0
KCH1 100147Z 34004KT 01/M02 A3038 RMK A01 T00101021  RH  080%=      5-min Rain = 0
KCH1 100148Z 33003KT 01/M02 A3038 RMK A01 T00101021  RH  079%=      5-min Rain = 0
KCH1 100149Z 33003KT 01/M02 A3038 RMK A01 T00101022  RH  079%=      5-min Rain = 0
KCH1 100150Z 31003KT 01/M02 A3038 RMK A01 T00101023  RH  078%=      5-min Rain = 0
KCH1 100151Z 31003KT 01/M02 A3038 RMK A01 T00111023  RH  078%=      5-min Rain = 0
KCH1 100152Z 31004KT 01/M02 A3038 RMK A01 T00111023  RH  078%=      5-min Rain = 0
KCH1 100153Z 31004KT 01/M02 A3038 RMK A01 T00121022  RH  078%=      5-min Rain = 0
KCH1 100154Z 31005KT 01/M02 A3038 RMK A01 T00121022  RH  078%=      5-min Rain = 0
KCH1 100155Z 31004KT 01/M02 A3038 RMK A01 T00121022  RH  078%=      5-min Rain = 0
KCH1 100156Z 31004KT 01/M02 A3038 RMK A01 T00121024  RH  077%=      5-min Rain = 0
KCH1 100157Z 32004KT 01/M02 A3038 RMK A01 T00131024  RH  076%=      5-min Rain = 0
KCH1 100158Z 32004KT 01/M02 A3038 RMK A01 T00141024  RH  076%=      5-min Rain = 0
KCH1 100159Z 32004KT 01/M03 A3038 RMK A01 T00141025  RH  075%=      5-min Rain = 0
KCH1 100200Z 32005KT 01/M03 A3038 RMK A01 T00141026  RH  075%=      5-min Rain = 0
KCH1 100201Z 33005KT 01/M03 A3038 RMK A01 T00141026  RH  074%=      5-min Rain = 0
KCH1 100202Z 33004KT 02/M03 A3038 RMK A01 T00151027  RH  074%=      5-min Rain = 0
KCH1 100203Z 32004KT 02/M03 A3038 RMK A01 T00151028  RH  073%=      5-min Rain = 0
KCH1 100204Z 32004KT 02/M03 A3038 RMK A01 T00161028  RH  073%=      5-min Rain = 0
KCH1 100205Z 32004KT 02/M03 A3038 RMK A01 T00171027  RH  073%=      5-min Rain = 0
KCH1 100206Z 32004KT 02/M03 A3038 RMK A01 T00171027  RH  073%=      5-min Rain = 0
KCH1 100207Z 32004KT 02/M03 A3038 RMK A01 T00171027  RH  073%=      5-min Rain = 0
KCH1 100208Z 32004KT 02/M03 A3038 RMK A01 T00171026  RH  073%=      5-min Rain = 0
KCH1 100209Z 32004KT 02/M03 A3038 RMK A01 T00171026  RH  073%=      5-min Rain = 0
KCH1 100210Z 32004KT 02/M03 A3038 RMK A01 T00171025  RH  074%=      5-min Rain = 0
KCH1 100211Z 32004KT 02/M02 A3038 RMK A01 T00171024  RH  074%=      5-min Rain = 0
KCH1 100212Z 32004KT 02/M02 A3038 RMK A01 T00171023  RH  074%=      5-min Rain = 0
KCH1 100213Z 32004KT 02/M02 A3038 RMK A01 T00171023  RH  075%=      5-min Rain = 0
KCH1 100214Z 32005KT 02/M02 A3038 RMK A01 T00171022  RH  075%=      5-min Rain = 0
KCH1 100215Z 32005KT 02/M02 A3038 RMK A01 T00171023  RH  075%=      5-min Rain = 0
KCH1 100216Z 32005KT 02/M02 A3038 RMK A01 T00171024  RH  074%=      5-min Rain = 0
KCH1 100217Z 31005KT 02/M03 A3038 RMK A01 T00171025  RH  074%=      5-min Rain = 0
KCH1 100218Z 31004KT 02/M03 A3038 RMK A01 T00171026  RH  073%=      5-min Rain = 0
KCH1 100219Z 31004KT 02/M03 A3038 RMK A01 T00171025  RH  074%=      5-min Rain = 0
KCH1 100220Z 31004KT 02/M02 A3038 RMK A01 T00171023  RH  075%=      5-min Rain = 0
KCH1 100221Z 30004KT 02/M02 A3038 RMK A01 T00161021  RH  076%=      5-min Rain = 0
KCH1 100222Z 31004KT 02/M02 A3038 RMK A01 T00161021  RH  077%=      5-min Rain = 0
KCH1 100223Z 31004KT 02/M02 A3038 RMK A01 T00151020  RH  077%=      5-min Rain = 0
KCH1 100224Z 31004KT 01/M02 A3038 RMK A01 T00141020  RH  078%=      5-min Rain = 0
KCH1 100225Z 31005KT 01/M02 A3038 RMK A01 T00141019  RH  079%=      5-min Rain = 0
KCH1 100226Z 31005KT 01/M02 A3038 RMK A01 T00131019  RH  079%=      5-min Rain = 0
KCH1 100227Z 30005KT 01/M02 A3038 RMK A01 T00131019  RH  079%=      5-min Rain = 0
KCH1 100228Z 31005KT 01/M02 A3038 RMK A01 T00131018  RH  080%=      5-min Rain = 0
KCH1 100229Z 31004KT 01/M02 A3038 RMK A01 T00131018  RH  080%=      5-min Rain = 0
KCH1 100230Z 31004KT 01/M02 A3038 RMK A01 T00131018  RH  080%=      5-min Rain = 0
KCH1 100231Z 31004KT 01/M02 A3038 RMK A01 T00131018  RH  080%=      5-min Rain = 0
KCH1 100232Z 31004KT 01/M02 A3038 RMK A01 T00121019  RH  080%=      5-min Rain = 0
KCH1 100233Z 30004KT 01/M02 A3038 RMK A01 T00121019  RH  080%=      5-min Rain = 0
KCH1 100234Z 30003KT 01/M02 A3038 RMK A01 T00121019  RH  080%=      5-min Rain = 0
KCH1 100235Z 30004KT 01/M02 A3038 RMK A01 T00121019  RH  080%=      5-min Rain = 0
KCH1 100236Z 30004KT 01/M02 A3038 RMK A01 T00111019  RH  081%=      5-min Rain = 0
KCH1 100237Z 31004KT 01/M02 A3038 RMK A01 T00111018  RH  081%=      5-min Rain = 0
KCH1 100238Z 31003KT 01/M02 A3038 RMK A01 T00111019  RH  080%=      5-min Rain = 0
KCH1 100239Z 32002KT 01/M02 A3038 RMK A01 T00121019  RH  080%=      5-min Rain = 0
KCH1 100240Z 32003KT 01/M02 A3038 RMK A01 T00111019  RH  080%=      5-min Rain = 0
KCH1 100241Z 32003KT 01/M02 A3038 RMK A01 T00111019  RH  081%=      5-min Rain = 0
KCH1 100242Z 31003KT 01/M02 A3038 RMK A01 T00101018  RH  081%=      5-min Rain = 0
KCH1 100243Z 31002KT 01/M02 A3038 RMK A01 T00101018  RH  082%=      5-min Rain = 0
KCH1 100244Z 31003KT 01/M02 A3038 RMK A01 T00101018  RH  082%=      5-min Rain = 0
KCH1 100245Z 31003KT 01/M02 A3038 RMK A01 T00101018  RH  082%=      5-min Rain = 0
KCH1 100246Z 30003KT 01/M02 A3038 RMK A01 T00091017  RH  082%=      5-min Rain = 0
KCH1 100247Z 30003KT 01/M02 A3038 RMK A01 T00091017  RH  083%=      5-min Rain = 0
KCH1 100248Z 30003KT 01/M02 A3038 RMK A01 T00091017  RH  083%=      5-min Rain = 0
KCH1 100249Z 31003KT 01/M02 A3038 RMK A01 T00091017  RH  083%=      5-min Rain = 0
KCH1 100250Z 31003KT 01/M02 A3038 RMK A01 T00091017  RH  083%=      5-min Rain = 0
KCH1 100251Z 31003KT 01/M02 A3038 RMK A01 T00081017  RH  083%=      5-min Rain = 0
KCH1 100252Z 31003KT 01/M02 A3038 RMK A01 T00081017  RH  083%=      5-min Rain = 0
KCH1 100253Z 32003KT 01/M02 A3038 RMK A01 T00081017  RH  084%=      5-min Rain = 0
KCH1 100254Z 31003KT 01/M02 A3038 RMK A01 T00071017  RH  084%=      5-min Rain = 0
KCH1 100255Z 31003KT 01/M02 A3038 RMK A01 T00071017  RH  084%=      5-min Rain = 0
KCH1 100256Z 30003KT 01/M02 A3038 RMK A01 T00071017  RH  084%=      5-min Rain = 0
KCH1 100257Z 30003KT 01/M02 A3038 RMK A01 T00071016  RH  085%=      5-min Rain = 0
KCH1 100258Z 30003KT 01/M02 A3038 RMK A01 T00071015  RH  085%=      5-min Rain = 0
KCH1 100259Z 31003KT 01/M02 A3039 RMK A01 T00071016  RH  085%=      5-min Rain = 0
KCH1 100300Z 31003KT 01/M02 A3039 RMK A01 T00071016  RH  085%=      5-min Rain = 0
KCH1 100301Z 31003KT 01/M02 A3039 RMK A01 T00071016  RH  085%=      5-min Rain = 0
KCH1 100302Z 31003KT 01/M02 A3039 RMK A01 T00071016  RH  085%=      5-min Rain = 0
KCH1 100303Z 31003KT 01/M02 A3039 RMK A01 T00061017  RH  085%=      5-min Rain = 0
KCH1 100304Z 30003KT 01/M02 A3039 RMK A01 T00051017  RH  085%=      5-min Rain = 0
KCH1 100305Z 31003KT 01/M02 A3039 RMK A01 T00051017  RH  085%=      5-min Rain = 0
KCH1 100306Z 31003KT 01/M02 A3039 RMK A01 T00051017  RH  086%=      5-min Rain = 0
KCH1 100307Z 32003KT 00/M02 A3039 RMK A01 T00041017  RH  086%=      5-min Rain = 0
KCH1 100308Z 32003KT 00/M02 A3039 RMK A01 T00041017  RH  086%=      5-min Rain = 0
KCH1 100309Z 32003KT 00/M02 A3039 RMK A01 T00041017  RH  086%=      5-min Rain = 0
KCH1 100310Z 32003KT 00/M02 A3039 RMK A01 T00031018  RH  086%=      5-min Rain = 0
KCH1 100311Z 31003KT 00/M02 A3038 RMK A01 T00031018  RH  086%=      5-min Rain = 0
KCH1 100312Z 31003KT 00/M02 A3038 RMK A01 T00031019  RH  085%=      5-min Rain = 0
KCH1 100313Z 30003KT 00/M02 A3038 RMK A01 T00031019  RH  085%=      5-min Rain = 0
KCH1 100314Z 30003KT 00/M02 A3038 RMK A01 T00031018  RH  086%=      5-min Rain = 0
KCH1 100315Z 30003KT 00/M02 A3038 RMK A01 T00031018  RH  086%=      5-min Rain = 0
KCH1 100316Z 30003KT 00/M02 A3038 RMK A01 T00031018  RH  086%=      5-min Rain = 0
KCH1 100317Z 30003KT 00/M02 A3038 RMK A01 T00041018  RH  085%=      5-min Rain = 0
KCH1 100318Z 30003KT 00/M02 A3038 RMK A01 T00041018  RH  085%=      5-min Rain = 0
KCH1 100319Z 30003KT 00/M02 A3038 RMK A01 T00041018  RH  085%=      5-min Rain = 0
KCH1 100320Z 30003KT 00/M02 A3038 RMK A01 T00041018  RH  085%=      5-min Rain = 0
KCH1 100321Z 30003KT 00/M02 A3038 RMK A01 T00041018  RH  085%=      5-min Rain = 0
KCH1 100322Z 30002KT 00/M02 A3038 RMK A01 T00031018  RH  085%=      5-min Rain = 0
KCH1 100323Z 30002KT 00/M02 A3038 RMK A01 T00031019  RH  086%=      5-min Rain = 0
KCH1 100324Z 30002KT 00/M02 A3038 RMK A01 T00021019  RH  086%=      5-min Rain = 0
KCH1 100325Z 31002KT 00/M02 A3038 RMK A01 T00011020  RH  086%=      5-min Rain = 0
KCH1 100326Z 31001KT 00/02 A3038 RMK A01 T00000-20  RH  086%=      5-min Rain = 0
KCH1 100327Z 31001KT 00/02 A3038 RMK A01 T00-00-20  RH  087%=      5-min Rain = 0
KCH1 100328Z 31001KT 00/02 A3038 RMK A01 T00-00-20  RH  087%=      5-min Rain = 0
KCH1 100329Z 31001KT M00/M02 A3038 RMK A01 T10011019  RH  087%=      5-min Rain = 0
KCH1 100330Z 31000KT M00/M02 A3038 RMK A01 T10021021  RH  087%=      5-min Rain = 0
KCH1 100331Z 32001KT M00/M02 A3038 RMK A01 T10021023  RH  086%=      5-min Rain = 0
KCH1 100332Z 32002KT M00/M02 A3038 RMK A01 T10031023  RH  086%=      5-min Rain = 0
KCH1 100333Z 32002KT M00/M02 A3038 RMK A01 T10041023  RH  086%=      5-min Rain = 0
KCH1 100334Z 31002KT M00/M02 A3038 RMK A01 T10041023  RH  087%=      5-min Rain = 0
KCH1 100335Z 32002KT M00/M02 A3039 RMK A01 T10041023  RH  087%=      5-min Rain = 0
KCH1 100336Z 32002KT M00/M02 A3039 RMK A01 T10041023  RH  087%=      5-min Rain = 0
KCH1 100337Z 32002KT M00/M02 A3039 RMK A01 T10041022  RH  087%=      5-min Rain = 0
KCH1 100338Z 33002KT M00/M02 A3039 RMK A01 T10041022  RH  088%=      5-min Rain = 0
KCH1 100339Z 35003KT M00/M02 A3039 RMK A01 T10041022  RH  088%=      5-min Rain = 0
KCH1 100340Z 36003KT M00/M02 A3039 RMK A01 T10041022  RH  088%=      5-min Rain = 0
KCH1 100341Z 01003KT M01/M02 A3039 RMK A01 T10051024  RH  087%=      5-min Rain = 0
KCH1 100342Z 00003KT M01/M03 A3039 RMK A01 T10071026  RH  087%=      5-min Rain = 0
KCH1 100343Z 36003KT M01/M03 A3039 RMK A01 T10081027  RH  087%=      5-min Rain = 0
KCH1 100344Z 35003KT M01/M03 A3039 RMK A01 T10091028  RH  087%=      5-min Rain = 0
KCH1 100345Z 34003KT M01/M03 A3039 RMK A01 T10101029  RH  087%=      5-min Rain = 0
KCH1 100346Z 34003KT M01/M03 A3039 RMK A01 T10111029  RH  088%=      5-min Rain = 0
KCH1 100347Z 35003KT M01/M03 A3039 RMK A01 T10101027  RH  088%=      5-min Rain = 0
KCH1 100348Z 35003KT M01/M03 A3039 RMK A01 T10101026  RH  089%=      5-min Rain = 0
KCH1 100349Z 34004KT M01/M03 A3039 RMK A01 T10101027  RH  088%=      5-min Rain = 0
KCH1 100350Z 34004KT M01/M03 A3039 RMK A01 T10091027  RH  088%=      5-min Rain = 0
KCH1 100351Z 34005KT M01/M03 A3039 RMK A01 T10101028  RH  088%=      5-min Rain = 0
KCH1 100352Z 34005KT M01/M03 A3039 RMK A01 T10101028  RH  088%=      5-min Rain = 0
KCH1 100353Z 34005KT M01/M03 A3039 RMK A01 T10101028  RH  088%=      5-min Rain = 0
KCH1 100354Z 33004KT M01/M03 A3039 RMK A01 T10101028  RH  088%=      5-min Rain = 0
KCH1 100355Z 34004KT M01/M03 A3039 RMK A01 T10101027  RH  088%=      5-min Rain = 0
KCH1 100356Z 33004KT M01/M03 A3039 RMK A01 T10101027  RH  088%=      5-min Rain = 0
KCH1 100357Z 33005KT M01/M03 A3039 RMK A01 T10101027  RH  088%=      5-min Rain = 0
KCH1 100358Z 34004KT M01/M03 A3039 RMK A01 T10101028  RH  088%=      5-min Rain = 0
KCH1 100359Z 34005KT M01/M03 A3039 RMK A01 T10101027  RH  088%=      5-min Rain = 0
KCH1 100400Z 33005KT M01/M03 A3039 RMK A01 T10101028  RH  088%=      5-min Rain = 0
KCH1 100401Z 33005KT M01/M03 A3039 RMK A01 T10101028  RH  088%=      5-min Rain = 0
KCH1 100402Z 32005KT M01/M03 A3039 RMK A01 T10091027  RH  088%=      5-min Rain = 0
KCH1 100403Z 33005KT M01/M03 A3039 RMK A01 T10091027  RH  088%=      5-min Rain = 0
KCH1 100404Z 32006KT M01/M03 A3039 RMK A01 T10081027  RH  087%=      5-min Rain = 0
KCH1 100405Z 32006KT M01/M03 A3039 RMK A01 T10081027  RH  087%=      5-min Rain = 0
KCH1 100406Z 32006KT M01/M03 A3039 RMK A01 T10081027  RH  087%=      5-min Rain = 0
KCH1 100407Z 32006KT M01/M03 A3039 RMK A01 T10071026  RH  087%=      5-min Rain = 0
KCH1 100408Z 32005KT M01/M03 A3039 RMK A01 T10071026  RH  087%=      5-min Rain = 0
KCH1 100409Z 32005KT M01/M03 A3039 RMK A01 T10071027  RH  086%=      5-min Rain = 0
KCH1 100410Z 32005KT M01/M03 A3039 RMK A01 T10071027  RH  086%=      5-min Rain = 0
KCH1 100411Z 31005KT M01/M03 A3039 RMK A01 T10071026  RH  087%=      5-min Rain = 0
KCH1 100412Z 31005KT M01/M03 A3039 RMK A01 T10061026  RH  087%=      5-min Rain = 0
KCH1 100413Z 31005KT M01/M03 A3039 RMK A01 T10061025  RH  087%=      5-min Rain = 0
KCH1 100414Z 31005KT M01/M03 A3039 RMK A01 T10061025  RH  087%=      5-min Rain = 0
KCH1 100415Z 31004KT M01/M03 A3039 RMK A01 T10061025  RH  087%=      5-min Rain = 0
KCH1 100416Z 31005KT M01/M02 A3039 RMK A01 T10061024  RH  087%=      5-min Rain = 0
KCH1 100417Z 31004KT M01/M03 A304 RMK A01 T10061025  RH  087%=      5-min Rain = 0
KCH1 100418Z 31004KT M01/M03 A304 RMK A01 T10061025  RH  087%=      5-min Rain = 0
KCH1 100419Z 31004KT M01/M03 A304 RMK A01 T10061025  RH  087%=      5-min Rain = 0
KCH1 100420Z 31005KT M01/M03 A304 RMK A01 T10061025  RH  087%=      5-min Rain = 0
KCH1 100421Z 31005KT M01/M03 A304 RMK A01 T10061025  RH  087%=      5-min Rain = 0
KCH1 100422Z 31005KT M01/M03 A304 RMK A01 T10071025  RH  087%=      5-min Rain = 0
KCH1 100423Z 31005KT M01/M03 A304 RMK A01 T10071026  RH  087%=      5-min Rain = 0
KCH1 100424Z 31005KT M01/M03 A304 RMK A01 T10071026  RH  087%=      5-min Rain = 0
KCH1 100425Z 31005KT M01/M03 A304 RMK A01 T10061025  RH  087%=      5-min Rain = 0
KCH1 100426Z 31005KT M01/M03 A304 RMK A01 T10061025  RH  087%=      5-min Rain = 0
KCH1 100427Z 31005KT M01/M03 A304 RMK A01 T10061025  RH  087%=      5-min Rain = 0
KCH1 100428Z 30005KT M01/M02 A304 RMK A01 T10061024  RH  088%=      5-min Rain = 0
KCH1 100429Z 30005KT M01/M03 A304 RMK A01 T10071025  RH  088%=      5-min Rain = 0
KCH1 100430Z 30005KT M01/M03 A304 RMK A01 T10071025  RH  088%=      5-min Rain = 0
KCH1 100431Z 29005KT M01/M02 A304 RMK A01 T10071024  RH  088%=      5-min Rain = 0
KCH1 100432Z 30005KT M01/M02 A304 RMK A01 T10081024  RH  089%=      5-min Rain = 0
KCH1 100433Z 29005KT M01/M02 A304 RMK A01 T10081024  RH  089%=      5-min Rain = 0
KCH1 100434Z 29005KT M01/M02 A304 RMK A01 T10081024  RH  089%=      5-min Rain = 0
KCH1 100435Z 29005KT M01/M02 A304 RMK A01 T10081024  RH  089%=      5-min Rain = 0
KCH1 100436Z 29005KT M01/M02 A304 RMK A01 T10091024  RH  089%=      5-min Rain = 0
KCH1 100437Z 29004KT M01/M02 A304 RMK A01 T10091024  RH  090%=      5-min Rain = 0
KCH1 100438Z 29005KT M01/M03 A304 RMK A01 T10101025  RH  090%=      5-min Rain = 0
KCH1 100439Z 29005KT M01/M02 A304 RMK A01 T10101024  RH  090%=      5-min Rain = 0
KCH1 100440Z 29006KT M01/M03 A304 RMK A01 T10111025  RH  090%=      5-min Rain = 0
KCH1 100441Z 29006KT M01/M02 A304 RMK A01 T10111024  RH  091%=      5-min Rain = 0
KCH1 100442Z 29006KT M01/M02 A304 RMK A01 T10101023  RH  091%=      5-min Rain = 0
KCH1 100443Z 28006KT M01/M02 A304 RMK A01 T10101022  RH  091%=      5-min Rain = 0
KCH1 100444Z 28006KT M01/M02 A304 RMK A01 T10091022  RH  091%=      5-min Rain = 0
KCH1 100445Z 29006KT M01/M02 A304 RMK A01 T10081021  RH  091%=      5-min Rain = 0
KCH1 100446Z 29006KT M01/M02 A304 RMK A01 T10071021  RH  091%=      5-min Rain = 0
KCH1 100447Z 29006KT M01/M02 A304 RMK A01 T10061021  RH  090%=      5-min Rain = 0
KCH1 100448Z 30006KT M01/M02 A304 RMK A01 T10061021  RH  089%=      5-min Rain = 0
KCH1 100449Z 31006KT M01/M02 A304 RMK A01 T10061022  RH  089%=      5-min Rain = 0
KCH1 100450Z 31006KT M01/M02 A304 RMK A01 T10051022  RH  088%=      5-min Rain = 0
KCH1 100451Z 31006KT M00/M02 A304 RMK A01 T10041022  RH  088%=      5-min Rain = 0
KCH1 100452Z 31005KT M00/M02 A304 RMK A01 T10031021  RH  088%=      5-min Rain = 0
KCH1 100453Z 31005KT M00/M02 A3039 RMK A01 T10021021  RH  087%=      5-min Rain = 0
KCH1 100454Z 31005KT M00/M02 A3039 RMK A01 T10021022  RH  087%=      5-min Rain = 0
KCH1 100455Z 32004KT M00/M02 A3039 RMK A01 T10021022  RH  086%=      5-min Rain = 0
KCH1 100456Z 31004KT M00/M02 A3039 RMK A01 T10021022  RH  086%=      5-min Rain = 0
KCH1 100457Z 32003KT M00/M02 A3039 RMK A01 T10031023  RH  086%=      5-min Rain = 0
KCH1 100458Z 32003KT M00/M02 A3039 RMK A01 T10041024  RH  086%=      5-min Rain = 0
KCH1 100459Z 32003KT M00/M02 A304 RMK A01 T10041024  RH  086%=      5-min Rain = 0
KCH1 100500Z 32002KT M01/M03 A304 RMK A01 T10061027  RH  086%=      5-min Rain = 0
KCH1 100501Z 31002KT M01/M03 A304 RMK A01 T10081029  RH  086%=      5-min Rain = 0
KCH1 100502Z 31002KT M01/M03 A3039 RMK A01 T10091028  RH  087%=      5-min Rain = 0
KCH1 100503Z 31003KT M01/M03 A3039 RMK A01 T10091027  RH  088%=      5-min Rain = 0
KCH1 100504Z 32003KT M01/M03 A304 RMK A01 T10091025  RH  089%=      5-min Rain = 0
KCH1 100505Z 32004KT M01/M03 A304 RMK A01 T10091025  RH  089%=      5-min Rain = 0
KCH1 100506Z 32004KT M01/M03 A304 RMK A01 T10091026  RH  089%=      5-min Rain = 0
KCH1 100507Z 32005KT M01/M03 A304 RMK A01 T10091026  RH  088%=      5-min Rain = 0
KCH1 100508Z 32004KT M01/M03 A304 RMK A01 T10091027  RH  088%=      5-min Rain = 0
KCH1 100509Z 32004KT M01/M03 A304 RMK A01 T10091027  RH  087%=      5-min Rain = 0
KCH1 100510Z 32004KT M01/M03 A304 RMK A01 T10091028  RH  087%=      5-min Rain = 0
KCH1 100511Z 32003KT M01/M03 A304 RMK A01 T10091028  RH  087%=      5-min Rain = 0
KCH1 100512Z 31004KT M01/M03 A304 RMK A01 T10091028  RH  087%=      5-min Rain = 0
KCH1 100513Z 31003KT M01/M03 A304 RMK A01 T10081028  RH  087%=      5-min Rain = 0
KCH1 100514Z 31003KT M01/M03 A304 RMK A01 T10081028  RH  086%=      5-min Rain = 0
KCH1 100515Z 31003KT M01/M03 A3039 RMK A01 T10081029  RH  086%=      5-min Rain = 0
KCH1 100516Z 31003KT M01/M03 A3039 RMK A01 T10081028  RH  086%=      5-min Rain = 0
KCH1 100517Z 31004KT M01/M03 A3039 RMK A01 T10071029  RH  085%=      5-min Rain = 0
KCH1 100518Z 31004KT M01/M03 A3039 RMK A01 T10071029  RH  085%=      5-min Rain = 0
KCH1 100519Z 30004KT M01/M03 A3039 RMK A01 T10071029  RH  085%=      5-min Rain = 0
KCH1 100520Z 30004KT M01/M03 A3039 RMK A01 T10081030  RH  085%=      5-min Rain = 0
KCH1 100521Z 30004KT M01/M03 A3039 RMK A01 T10081030  RH  085%=      5-min Rain = 0
KCH1 100522Z 30004KT M01/M03 A3039 RMK A01 T10081030  RH  085%=      5-min Rain = 0
KCH1 100523Z 29004KT M01/M03 A3039 RMK A01 T10071029  RH  085%=      5-min Rain = 0
KCH1 100524Z 29004KT M01/M03 A3039 RMK A01 T10081030  RH  085%=      5-min Rain = 0
KCH1 100525Z 29004KT M01/M03 A3039 RMK A01 T10081029  RH  086%=      5-min Rain = 0
KCH1 100526Z 29004KT M01/M03 A3039 RMK A01 T10081029  RH  086%=      5-min Rain = 0
KCH1 100527Z 30004KT M01/M03 A3039 RMK A01 T10081029  RH  086%=      5-min Rain = 0
KCH1 100528Z 30004KT M01/M03 A3039 RMK A01 T10081028  RH  086%=      5-min Rain = 0
KCH1 100529Z 31004KT M01/M03 A3039 RMK A01 T10081028  RH  087%=      5-min Rain = 0
KCH1 100530Z 31004KT M01/M03 A3039 RMK A01 T10081028  RH  087%=      5-min Rain = 0
KCH1 100531Z 31004KT M01/M03 A3039 RMK A01 T10081027  RH  087%=      5-min Rain = 0
KCH1 100532Z 31004KT M01/M03 A3039 RMK A01 T10091028  RH  087%=      5-min Rain = 0
KCH1 100533Z 31004KT M01/M03 A3039 RMK A01 T10081027  RH  087%=      5-min Rain = 0
KCH1 100534Z 31004KT M01/M03 A3039 RMK A01 T10091028  RH  087%=      5-min Rain = 0
KCH1 100535Z 31003KT M01/M03 A3039 RMK A01 T10091028  RH  087%=      5-min Rain = 0
KCH1 100536Z 32003KT M01/M03 A3039 RMK A01 T10091027  RH  088%=      5-min Rain = 0
KCH1 100537Z 32002KT M01/M03 A3039 RMK A01 T10091028  RH  087%=      5-min Rain = 0
KCH1 100538Z 33002KT M01/M03 A3039 RMK A01 T10111031  RH  087%=      5-min Rain = 0
KCH1 100539Z 33003KT M01/M03 A3039 RMK A01 T10141034  RH  086%=      5-min Rain = 0
KCH1 100540Z 33002KT M02/M04 A304 RMK A01 T10161036  RH  086%=      5-min Rain = 0
KCH1 100541Z 34002KT M02/M04 A304 RMK A01 T10181038  RH  087%=      5-min Rain = 0
KCH1 100542Z 34003KT M02/M04 A304 RMK A01 T10201039  RH  087%=      5-min Rain = 0
KCH1 100543Z 34003KT M02/M04 A304 RMK A01 T10211039  RH  088%=      5-min Rain = 0
KCH1 100544Z 34003KT M02/M04 A304 RMK A01 T10221039  RH  089%=      5-min Rain = 0
KCH1 100545Z 34003KT M02/M04 A3039 RMK A01 T10231037  RH  090%=      5-min Rain = 0
KCH1 100546Z 33002KT M02/M04 A3039 RMK A01 T10221036  RH  090%=      5-min Rain = 0
KCH1 100547Z 33002KT M02/M04 A3039 RMK A01 T10221035  RH  091%=      5-min Rain = 0
KCH1 100548Z 33002KT M02/M03 A3039 RMK A01 T10211034  RH  091%=      5-min Rain = 0
KCH1 100549Z 33002KT M02/M03 A3039 RMK A01 T10201032  RH  092%=      5-min Rain = 0
KCH1 100550Z 33002KT M02/M03 A3039 RMK A01 T10191031  RH  092%=      5-min Rain = 0
KCH1 100551Z 32002KT M02/M03 A3039 RMK A01 T10191031  RH  092%=      5-min Rain = 0
KCH1 100552Z 32002KT M02/M03 A3039 RMK A01 T10191032  RH  091%=      5-min Rain = 0
KCH1 100553Z 33003KT M02/M03 A3039 RMK A01 T10201034  RH  090%=      5-min Rain = 0
KCH1 100554Z 33003KT M02/M04 A3039 RMK A01 T10211035  RH  090%=      5-min Rain = 0
KCH1 100555Z 33003KT M02/M04 A3039 RMK A01 T10211035  RH  090%=      5-min Rain = 0
KCH1 100556Z 33003KT M02/M03 A3039 RMK A01 T10201034  RH  090%=      5-min Rain = 0
KCH1 100557Z 33004KT M02/M03 A3039 RMK A01 T10201034  RH  090%=      5-min Rain = 0
KCH1 100558Z 33004KT M02/M03 A3039 RMK A01 T10201034  RH  090%=      5-min Rain = 0
KCH1 100559Z 33003KT M02/M03 A3039 RMK A01 T10201034  RH  090%=      5-min Rain = 0

Page generated in 0.1893 seconds.